GEFSCGP_prec_meanprecacc_222.txt.gz
Total_Precipitation_Accumulation
0.00 0.01 0.01 0.02 0.02 0.03 0.04 0.08 0.16 0.25 0.20 0.30 0.37 0.48 0.63 0.79 1.01 1.04 1.12 1.22 1.44 1.74 2.15 2.83 3.52 4.08 4.75 5.52 6.11 5.97 5.35 4.85 4.26 3.74 3.22 3.15 2.98 2.68 2.40 2.14 1.87 1.82 1.78 1.61
0.01 0.03 0.03 0.03 0.03 0.04 0.06 0.09 0.15 0.20 0.17 0.17 0.30 0.57 0.73 0.81 0.97 0.92 0.93 0.95 1.15 1.50 2.10 2.89 3.50 3.71 3.71 4.00 4.26 3.76 3.56 3.55 3.15 2.83 2.76 2.67 2.57 2.29 2.06 1.92 1.87 1.52 1.52 1.52
0.02 0.04 0.03 0.03 0.03 0.05 0.08 0.10 0.12 0.17 0.18 0.24 0.39 0.74 0.96 0.88 0.87 0.75 0.73 0.94 1.41 1.81 2.24 2.74 2.90 2.92 2.81 2.79 2.78 2.56 2.50 2.81 2.74 2.68 2.60 2.55 2.56 2.45 2.19 1.86 1.82 1.50 1.33 1.35
0.01 0.03 0.03 0.04 0.05 0.05 0.08 0.07 0.05 0.05 0.13 0.36 0.54 0.96 1.13 1.04 0.99 0.73 0.75 1.13 1.64 1.95 2.21 2.19 1.79 1.67 1.82 1.90 2.00 2.26 2.33 2.47 2.39 2.44 2.24 2.02 1.88 1.78 1.70 1.63 1.66 1.66 1.44 1.34
0.03 0.03 0.04 0.05 0.05 0.04 0.05 0.05 0.03 0.06 0.16 0.40 0.69 1.12 1.31 1.10 0.93 0.71 0.67 0.77 1.15 1.32 1.28 1.06 0.91 0.98 1.22 1.47 1.71 2.10 2.20 2.25 2.20 2.13 2.10 2.10 1.98 1.97 1.84 1.77 1.91 1.90 1.85 1.64
0.04 0.04 0.04 0.04 0.03 0.04 0.05 0.05 0.11 0.21 0.39 0.84 0.91 1.01 1.26 1.06 0.86 0.71 0.55 0.54 0.77 0.79 0.64 0.68 0.73 0.92 1.15 1.32 1.43 1.65 1.83 2.03 2.08 2.10 2.15 2.09 2.06 2.13 1.96 1.81 1.73 1.70 1.75 1.68
0.09 0.09 0.06 0.04 0.04 0.04 0.04 0.07 0.28 0.62 0.91 1.04 0.77 0.90 1.20 0.82 0.57 0.47 0.36 0.31 0.34 0.39 0.49 0.67 0.75 0.93 1.02 1.12 1.15 1.24 1.37 1.60 1.78 1.89 1.97 2.00 2.03 2.08 1.90 1.80 1.69 1.64 1.54 1.49
0.15 0.14 0.08 0.04 0.05 0.05 0.04 0.04 0.12 0.24 0.36 0.57 0.71 1.09 1.18 0.78 0.45 0.28 0.23 0.25 0.24 0.29 0.36 0.43 0.53 0.57 0.69 0.83 1.02 1.16 1.21 1.25 1.31 1.38 1.59 1.76 1.79 1.83 1.78 1.84 1.64 1.53 1.43 1.43
0.05 0.04 0.04 0.04 0.05 0.04 0.04 0.04 0.05 0.07 0.11 0.35 0.77 1.04 0.96 0.64 0.46 0.35 0.31 0.34 0.33 0.31 0.36 0.32 0.34 0.43 0.52 0.54 0.67 0.88 0.97 1.01 1.04 1.12 1.26 1.37 1.44 1.57 1.73 1.70 1.50 1.34 1.37 1.39
0.02 0.02 0.03 0.03 0.04 0.04 0.05 0.04 0.04 0.06 0.12 0.26 0.61 1.09 1.27 0.92 0.66 0.52 0.51 0.43 0.38 0.35 0.34 0.35 0.37 0.40 0.47 0.50 0.56 0.71 0.87 0.93 0.96 1.02 1.09 1.05 1.22 1.33 1.49 1.53 1.47 1.32 1.29 1.38
0.02 0.02 0.03 0.03 0.05 0.06 0.06 0.05 0.06 0.08 0.09 0.17 0.44 0.72 0.73 0.78 0.64 0.46 0.47 0.44 0.40 0.36 0.36 0.41 0.39 0.44 0.42 0.42 0.52 0.59 0.74 0.86 0.85 0.91 0.97 1.06 1.16 1.33 1.39 1.38 1.41 1.38 1.37 1.42
0.02 0.01 0.02 0.04 0.06 0.07 0.08 0.09 0.09 0.10 0.10 0.12 0.22 0.38 0.43 0.48 0.57 0.67 0.56 0.54 0.55 0.49 0.41 0.42 0.40 0.43 0.38 0.40 0.50 0.56 0.62 0.73 0.79 0.86 0.95 1.06 1.14 1.24 1.33 1.30 1.37 1.49 1.49 1.53
0.02 0.02 0.03 0.11 0.16 0.15 0.11 0.11 0.10 0.10 0.10 0.10 0.21 0.37 0.38 0.34 0.40 0.50 0.57 0.64 0.58 0.46 0.45 0.44 0.51 0.50 0.44 0.45 0.50 0.58 0.70 0.82 0.89 0.96 1.04 1.08 1.05 1.14 1.28 1.33 1.36 1.45 1.55 1.62
0.02 0.02 0.03 0.09 0.18 0.21 0.20 0.16 0.13 0.10 0.08 0.08 0.13 0.27 0.29 0.41 0.51 0.47 0.54 0.62 0.55 0.39 0.39 0.50 0.57 0.62 0.69 0.68 0.70 0.82 0.94 0.93 0.96 0.91 0.96 1.05 1.09 1.23 1.37 1.41 1.43 1.47 1.49 1.53
0.02 0.02 0.02 0.02 0.06 0.13 0.20 0.19 0.14 0.10 0.07 0.08 0.09 0.17 0.29 0.46 0.58 0.62 0.60 0.61 0.58 0.51 0.52 0.57 0.66 0.72 0.78 0.84 0.83 0.82 0.91 0.91 0.95 1.14 1.25 1.30 1.28 1.34 1.47 1.57 1.56 1.60 1.62 1.60
0.04 0.04 0.03 0.04 0.06 0.08 0.12 0.16 0.12 0.09 0.08 0.07 0.10 0.19 0.32 0.52 0.57 0.64 0.61 0.57 0.56 0.62 0.63 0.70 0.76 0.81 0.82 0.85 0.93 0.98 0.98 1.01 1.16 1.53 1.69 1.69 1.71 1.74 1.74 1.77 1.76 1.82 1.87 2.03
0.11 0.10 0.08 0.06 0.08 0.10 0.15 0.14 0.12 0.11 0.10 0.11 0.16 0.27 0.36 0.48 0.64 0.73 0.66 0.54 0.52 0.53 0.59 0.66 0.81 0.91 0.89 0.87 0.92 1.02 1.11 1.18 1.31 1.56 1.70 1.75 1.78 1.82 1.93 1.96 1.98 2.00 2.08 2.15
0.19 0.19 0.16 0.11 0.12 0.19 0.17 0.16 0.16 0.15 0.17 0.20 0.32 0.43 0.47 0.49 0.57 0.61 0.52 0.51 0.54 0.56 0.66 0.77 0.80 0.92 1.00 1.04 1.11 1.25 1.43 1.59 1.63 1.72 1.88 1.95 1.91 1.94 1.99 1.99 1.94 1.95 2.05 2.08
0.25 0.27 0.24 0.22 0.22 0.20 0.20 0.24 0.25 0.26 0.33 0.39 0.52 0.65 0.71 0.69 0.66 0.75 0.68 0.63 0.64 0.73 0.82 0.98 1.11 1.11 1.16 1.29 1.40 1.48 1.67 1.82 1.84 1.86 2.03 2.13 2.19 2.26 2.19 2.10 2.10 2.10 2.10 1.97
0.29 0.33 0.39 0.34 0.37 0.38 0.32 0.36 0.35 0.39 0.67 0.66 0.73 0.83 0.89 0.89 1.10 1.14 0.89 0.85 0.77 0.76 0.84 0.95 1.16 1.30 1.31 1.45 1.55 1.61 1.69 1.74 1.81 1.81 1.90 2.05 2.14 2.32 2.42 2.35 2.35 2.28 2.18 2.06
0.43 0.46 0.43 0.44 0.48 0.47 0.42 0.39 0.41 0.79 1.10 0.98 0.95 0.97 1.05 1.17 1.16 1.08 0.93 0.93 0.98 0.90 0.86 0.89 0.97 1.14 1.25 1.32 1.40 1.53 1.60 1.59 1.69 1.70 1.67 1.81 2.01 2.20 2.33 2.45 2.47 2.47 2.36 2.20
0.63 0.67 0.63 0.58 0.76 0.86 0.59 0.49 0.73 1.04 1.04 1.18 1.12 1.11 1.20 1.24 1.24 1.21 1.16 1.11 1.04 0.98 0.91 0.93 0.99 1.07 1.15 1.28 1.47 1.62 1.66 1.66 1.68 1.72 1.81 1.92 2.07 2.15 2.14 2.20 2.27 2.38 2.34 2.26
0.84 0.90 0.89 0.91 1.06 0.98 0.70 0.73 0.82 0.86 1.04 1.13 1.15 1.17 1.21 1.23 1.20 1.11 1.01 1.00 1.08 1.01 0.99 0.94 1.00 1.12 1.28 1.45 1.66 1.86 1.87 1.88 1.88 1.90 1.96 2.03 2.11 2.17 2.21 2.19 2.18 2.16 2.09 1.95
0.96 0.82 0.99 1.22 1.36 1.14 0.95 0.90 0.92 1.00 1.12 1.21 1.30 1.37 1.28 1.15 1.07 1.06 1.02 0.99 1.07 1.08 1.03 1.00 0.99 1.07 1.26 1.39 1.49 1.69 1.80 1.83 1.95 1.90 1.84 1.79 1.80 1.84 1.88 1.91 1.92 1.93 1.89 1.84
1.05 1.03 1.18 1.56 1.79 1.64 1.41 1.19 1.11 1.18 1.36 1.50 1.52 1.44 1.33 1.27 1.24 1.28 1.23 1.11 1.04 1.04 1.07 1.07 1.09 1.12 1.18 1.24 1.29 1.39 1.52 1.63 1.81 1.91 1.88 1.88 1.85 1.80 1.80 1.85 1.91 1.80 1.76 1.76
0.99 1.23 1.49 1.82 1.82 1.89 1.77 1.42 1.30 1.34 1.45 1.51 1.46 1.50 1.50 1.46 1.41 1.28 1.21 1.13 1.05 1.00 1.04 1.10 1.17 1.21 1.20 1.21 1.29 1.40 1.53 1.69 1.89 1.91 1.83 1.83 1.87 1.89 1.88 1.87 1.92 1.96 1.77 1.72

GEFSCGP_prec_meanprecacc_228.txt.gz
Total_Precipitation_Accumulation
0.00 0.01 0.01 0.02 0.02 0.03 0.05 0.08 0.17 0.26 0.22 0.31 0.39 0.49 0.64 0.80 1.01 1.04 1.13 1.23 1.48 1.78 2.17 2.83 3.52 4.08 4.75 5.52 6.11 5.97 5.35 4.86 4.29 3.79 3.28 3.20 3.02 2.72 2.45 2.19 1.91 1.86 1.81 1.64
0.01 0.03 0.03 0.03 0.03 0.04 0.06 0.09 0.15 0.21 0.18 0.19 0.32 0.58 0.74 0.81 0.97 0.93 0.94 1.00 1.20 1.54 2.14 2.90 3.51 3.71 3.71 4.00 4.26 3.76 3.57 3.56 3.16 2.85 2.80 2.73 2.61 2.33 2.11 1.97 1.91 1.55 1.55 1.54
0.02 0.04 0.03 0.03 0.03 0.05 0.09 0.11 0.12 0.19 0.19 0.25 0.39 0.75 0.97 0.89 0.89 0.77 0.74 0.95 1.42 1.84 2.26 2.76 2.91 2.92 2.81 2.79 2.78 2.56 2.50 2.81 2.74 2.69 2.63 2.62 2.61 2.49 2.23 1.90 1.85 1.53 1.37 1.39
0.01 0.03 0.03 0.04 0.05 0.05 0.08 0.07 0.05 0.07 0.14 0.37 0.55 0.97 1.14 1.06 1.02 0.77 0.80 1.17 1.67 1.98 2.23 2.21 1.80 1.67 1.82 1.91 2.01 2.26 2.35 2.49 2.40 2.46 2.28 2.09 1.92 1.82 1.73 1.67 1.71 1.70 1.50 1.39
0.03 0.03 0.04 0.05 0.05 0.04 0.05 0.05 0.04 0.07 0.17 0.42 0.71 1.13 1.35 1.14 0.96 0.75 0.74 0.81 1.18 1.34 1.30 1.13 0.96 1.00 1.24 1.50 1.73 2.12 2.22 2.28 2.22 2.15 2.13 2.12 2.00 1.99 1.88 1.81 1.96 1.94 1.91 1.71
0.04 0.04 0.04 0.04 0.03 0.04 0.05 0.06 0.12 0.21 0.40 0.87 0.94 1.02 1.30 1.11 0.90 0.75 0.62 0.58 0.80 0.82 0.67 0.71 0.77 0.95 1.19 1.36 1.45 1.67 1.85 2.04 2.10 2.11 2.16 2.10 2.07 2.14 2.00 1.85 1.77 1.73 1.79 1.74
0.09 0.09 0.06 0.04 0.04 0.04 0.04 0.07 0.28 0.63 0.93 1.07 0.80 0.94 1.23 0.86 0.62 0.53 0.43 0.37 0.40 0.48 0.55 0.71 0.79 0.97 1.07 1.17 1.19 1.30 1.40 1.62 1.80 1.91 1.98 2.00 2.04 2.09 1.92 1.82 1.70 1.65 1.56 1.52
0.15 0.14 0.09 0.04 0.05 0.05 0.05 0.05 0.13 0.25 0.37 0.58 0.74 1.13 1.21 0.83 0.52 0.38 0.31 0.31 0.31 0.38 0.44 0.49 0.59 0.64 0.74 0.90 1.13 1.30 1.27 1.28 1.33 1.40 1.60 1.76 1.80 1.84 1.79 1.86 1.67 1.54 1.45 1.45
0.05 0.04 0.05 0.04 0.05 0.04 0.05 0.04 0.05 0.07 0.11 0.36 0.79 1.06 0.99 0.68 0.50 0.41 0.40 0.42 0.40 0.42 0.48 0.41 0.42 0.54 0.62 0.66 0.79 1.01 1.05 1.05 1.07 1.15 1.29 1.39 1.45 1.58 1.76 1.72 1.53 1.36 1.38 1.41
0.03 0.02 0.03 0.03 0.04 0.04 0.05 0.05 0.05 0.07 0.13 0.27 0.63 1.13 1.29 0.95 0.68 0.55 0.59 0.53 0.46 0.41 0.42 0.47 0.48 0.51 0.58 0.59 0.70 0.85 0.98 1.01 1.01 1.06 1.12 1.08 1.24 1.35 1.51 1.55 1.50 1.39 1.31 1.40
0.02 0.02 0.03 0.03 0.05 0.06 0.06 0.06 0.07 0.09 0.10 0.18 0.46 0.74 0.75 0.79 0.66 0.50 0.53 0.53 0.47 0.41 0.42 0.52 0.50 0.51 0.48 0.48 0.59 0.72 0.89 0.96 0.92 0.97 1.02 1.11 1.20 1.36 1.41 1.40 1.43 1.41 1.39 1.45
0.02 0.02 0.02 0.04 0.06 0.07 0.08 0.09 0.10 0.11 0.12 0.13 0.24 0.41 0.46 0.51 0.60 0.70 0.63 0.61 0.61 0.55 0.47 0.52 0.54 0.50 0.43 0.48 0.58 0.68 0.83 0.91 0.93 0.96 1.05 1.15 1.22 1.30 1.38 1.33 1.40 1.52 1.53 1.56
0.03 0.02 0.03 0.11 0.16 0.15 0.12 0.11 0.11 0.11 0.11 0.12 0.23 0.40 0.41 0.37 0.43 0.53 0.60 0.67 0.63 0.52 0.51 0.52 0.62 0.57 0.49 0.50 0.57 0.70 0.93 1.09 1.17 1.15 1.18 1.18 1.15 1.23 1.36 1.39 1.42 1.51 1.60 1.66
0.03 0.03 0.03 0.09 0.18 0.22 0.21 0.17 0.14 0.11 0.10 0.10 0.15 0.29 0.33 0.46 0.55 0.52 0.58 0.64 0.59 0.45 0.46 0.56 0.66 0.71 0.76 0.75 0.78 0.92 1.08 1.09 1.16 1.08 1.10 1.17 1.20 1.33 1.47 1.50 1.51 1.53 1.54 1.57
0.03 0.02 0.02 0.02 0.06 0.13 0.21 0.19 0.14 0.10 0.07 0.09 0.10 0.18 0.31 0.51 0.64 0.69 0.69 0.66 0.60 0.54 0.58 0.63 0.72 0.79 0.86 0.93 0.91 0.91 0.99 1.00 1.09 1.35 1.44 1.49 1.47 1.50 1.62 1.70 1.67 1.70 1.69 1.65
0.05 0.04 0.03 0.04 0.06 0.08 0.12 0.16 0.13 0.09 0.08 0.08 0.10 0.21 0.34 0.55 0.62 0.70 0.66 0.61 0.60 0.66 0.68 0.75 0.80 0.84 0.87 0.92 1.02 1.07 1.08 1.10 1.27 1.66 1.87 1.95 1.94 1.94 1.95 1.97 1.98 2.03 2.01 2.11
0.11 0.10 0.08 0.06 0.08 0.10 0.15 0.14 0.13 0.11 0.10 0.12 0.18 0.29 0.39 0.53 0.69 0.78 0.70 0.57 0.55 0.58 0.64 0.71 0.84 0.94 0.93 0.92 0.98 1.09 1.19 1.27 1.40 1.66 1.82 1.88 1.93 1.99 2.11 2.16 2.19 2.21 2.24 2.27
0.19 0.20 0.16 0.11 0.13 0.19 0.19 0.19 0.18 0.17 0.19 0.24 0.35 0.47 0.51 0.54 0.63 0.66 0.57 0.55 0.58 0.60 0.70 0.81 0.83 0.94 1.03 1.08 1.16 1.32 1.50 1.66 1.72 1.85 2.04 2.13 2.09 2.10 2.16 2.17 2.10 2.09 2.21 2.23
0.25 0.28 0.25 0.22 0.22 0.21 0.23 0.28 0.27 0.28 0.37 0.45 0.58 0.71 0.78 0.75 0.70 0.79 0.72 0.66 0.67 0.76 0.85 1.02 1.16 1.15 1.21 1.33 1.45 1.53 1.72 1.87 1.92 1.96 2.14 2.27 2.36 2.42 2.33 2.22 2.22 2.22 2.21 2.07
0.29 0.33 0.39 0.35 0.38 0.39 0.34 0.39 0.37 0.40 0.70 0.70 0.79 0.90 0.96 1.00 1.20 1.20 0.93 0.88 0.80 0.80 0.89 1.00 1.21 1.35 1.37 1.51 1.62 1.66 1.73 1.81 1.89 1.91 1.99 2.15 2.24 2.42 2.54 2.48 2.45 2.37 2.26 2.14
0.43 0.46 0.44 0.44 0.49 0.48 0.44 0.42 0.46 0.83 1.16 1.02 0.98 1.04 1.13 1.23 1.23 1.15 0.97 0.97 1.02 0.93 0.89 0.93 1.01 1.17 1.27 1.36 1.45 1.59 1.67 1.67 1.76 1.79 1.78 1.94 2.15 2.31 2.42 2.54 2.56 2.56 2.46 2.32
0.64 0.68 0.63 0.59 0.78 0.89 0.61 0.52 0.77 1.08 1.08 1.22 1.15 1.15 1.24 1.28 1.29 1.27 1.20 1.15 1.08 1.00 0.93 0.95 1.01 1.09 1.18 1.32 1.52 1.68 1.72 1.71 1.72 1.78 1.87 1.99 2.17 2.26 2.26 2.31 2.37 2.46 2.43 2.38
0.86 0.92 0.91 0.93 1.09 1.00 0.73 0.77 0.86 0.90 1.07 1.16 1.18 1.21 1.25 1.26 1.24 1.16 1.05 1.04 1.10 1.03 1.00 0.95 1.01 1.14 1.31 1.49 1.71 1.91 1.91 1.92 1.92 1.95 2.00 2.07 2.17 2.24 2.28 2.26 2.25 2.24 2.18 2.06
0.98 0.84 1.01 1.24 1.38 1.18 0.98 0.93 0.97 1.05 1.16 1.25 1.35 1.42 1.32 1.19 1.12 1.10 1.06 1.02 1.10 1.10 1.04 1.01 1.01 1.08 1.29 1.42 1.53 1.73 1.84 1.87 1.98 1.94 1.87 1.83 1.84 1.88 1.94 1.99 2.00 2.01 1.96 1.90
1.07 1.06 1.22 1.60 1.82 1.68 1.45 1.22 1.15 1.23 1.45 1.63 1.63 1.54 1.44 1.35 1.31 1.35 1.29 1.14 1.07 1.06 1.09 1.09 1.11 1.15 1.21 1.28 1.33 1.43 1.57 1.68 1.86 1.95 1.93 1.92 1.89 1.84 1.85 1.91 1.97 1.85 1.79 1.80
1.02 1.27 1.55 1.87 1.85 1.93 1.82 1.47 1.36 1.40 1.55 1.66 1.63 1.64 1.64 1.58 1.49 1.35 1.26 1.17 1.11 1.06 1.08 1.14 1.21 1.25 1.24 1.25 1.34 1.44 1.57 1.76 1.96 1.97 1.89 1.89 1.94 1.96 1.94 1.92 1.97 2.00 1.81 1.75

GEFSCGP_prec_meanprecacc_234.txt.gz
Total_Precipitation_Accumulation
0.00 0.01 0.01 0.02 0.02 0.03 0.05 0.08 0.17 0.26 0.22 0.31 0.39 0.49 0.64 0.80 1.02 1.04 1.13 1.23 1.48 1.78 2.17 2.84 3.53 4.09 4.77 5.53 6.11 5.98 5.37 4.88 4.35 3.88 3.35 3.28 3.09 2.78 2.49 2.21 1.94 1.90 1.85 1.68
0.01 0.03 0.03 0.03 0.03 0.04 0.06 0.09 0.15 0.21 0.18 0.19 0.32 0.59 0.74 0.81 0.97 0.93 0.94 1.00 1.20 1.55 2.16 2.92 3.52 3.73 3.74 4.02 4.28 3.77 3.57 3.57 3.24 2.96 2.89 2.82 2.69 2.39 2.16 2.01 1.95 1.61 1.60 1.59
0.02 0.04 0.03 0.03 0.03 0.05 0.09 0.11 0.12 0.19 0.19 0.25 0.40 0.75 0.97 0.89 0.89 0.77 0.74 0.96 1.43 1.85 2.28 2.79 2.96 2.96 2.84 2.82 2.81 2.57 2.51 2.83 2.82 2.77 2.72 2.69 2.68 2.54 2.28 1.96 1.92 1.59 1.43 1.45
0.01 0.03 0.03 0.04 0.05 0.05 0.08 0.07 0.05 0.07 0.14 0.37 0.55 0.97 1.14 1.06 1.02 0.77 0.81 1.18 1.69 2.00 2.26 2.24 1.83 1.69 1.84 1.93 2.04 2.28 2.36 2.50 2.43 2.49 2.33 2.14 1.97 1.86 1.78 1.73 1.78 1.77 1.56 1.45
0.03 0.03 0.04 0.05 0.05 0.04 0.05 0.05 0.04 0.07 0.17 0.42 0.71 1.14 1.35 1.15 0.97 0.76 0.75 0.82 1.20 1.36 1.32 1.15 0.98 1.01 1.25 1.52 1.77 2.16 2.25 2.29 2.23 2.19 2.21 2.19 2.05 2.04 1.93 1.87 2.03 2.01 1.98 1.78
0.04 0.04 0.04 0.04 0.03 0.04 0.05 0.06 0.12 0.22 0.40 0.87 0.94 1.03 1.30 1.12 0.90 0.76 0.63 0.59 0.81 0.84 0.68 0.72 0.78 0.95 1.20 1.38 1.49 1.74 1.89 2.06 2.11 2.15 2.23 2.14 2.10 2.18 2.03 1.91 1.85 1.80 1.85 1.79
0.09 0.09 0.06 0.04 0.04 0.04 0.04 0.07 0.28 0.63 0.93 1.07 0.80 0.94 1.24 0.87 0.62 0.54 0.44 0.37 0.41 0.49 0.56 0.72 0.80 0.98 1.08 1.19 1.22 1.37 1.45 1.64 1.83 1.94 2.01 2.03 2.06 2.13 1.97 1.89 1.78 1.73 1.62 1.57
0.15 0.14 0.09 0.04 0.05 0.05 0.05 0.05 0.13 0.25 0.37 0.58 0.75 1.13 1.22 0.83 0.52 0.38 0.32 0.32 0.32 0.39 0.45 0.50 0.60 0.66 0.77 0.92 1.16 1.34 1.31 1.32 1.38 1.45 1.63 1.80 1.83 1.88 1.85 1.92 1.73 1.59 1.50 1.50
0.05 0.04 0.05 0.04 0.05 0.04 0.05 0.04 0.05 0.07 0.11 0.36 0.80 1.07 0.99 0.69 0.51 0.41 0.41 0.43 0.42 0.43 0.49 0.43 0.44 0.56 0.65 0.69 0.83 1.05 1.11 1.12 1.17 1.22 1.36 1.44 1.49 1.62 1.81 1.77 1.57 1.39 1.42 1.44
0.03 0.02 0.03 0.03 0.04 0.04 0.05 0.05 0.05 0.07 0.13 0.28 0.63 1.13 1.29 0.95 0.69 0.55 0.59 0.54 0.47 0.42 0.43 0.48 0.50 0.54 0.62 0.63 0.75 0.91 1.06 1.13 1.14 1.15 1.19 1.14 1.29 1.41 1.57 1.59 1.52 1.42 1.33 1.43
0.02 0.02 0.03 0.03 0.05 0.06 0.06 0.06 0.07 0.09 0.10 0.18 0.46 0.74 0.75 0.80 0.66 0.50 0.54 0.53 0.49 0.42 0.43 0.54 0.52 0.54 0.52 0.52 0.62 0.76 0.95 1.06 1.01 1.04 1.08 1.16 1.25 1.42 1.47 1.43 1.46 1.44 1.42 1.47
0.02 0.02 0.02 0.04 0.06 0.07 0.08 0.09 0.10 0.11 0.12 0.13 0.24 0.41 0.46 0.51 0.60 0.71 0.63 0.62 0.62 0.57 0.48 0.53 0.55 0.52 0.45 0.50 0.60 0.69 0.86 0.99 1.04 1.05 1.12 1.21 1.27 1.35 1.42 1.36 1.43 1.56 1.58 1.62
0.03 0.02 0.04 0.12 0.16 0.15 0.12 0.11 0.11 0.11 0.12 0.12 0.24 0.41 0.41 0.37 0.43 0.53 0.60 0.68 0.64 0.53 0.52 0.53 0.64 0.58 0.50 0.52 0.58 0.71 0.96 1.18 1.33 1.36 1.30 1.27 1.22 1.27 1.39 1.42 1.46 1.56 1.66 1.72
0.03 0.03 0.04 0.09 0.18 0.22 0.21 0.17 0.14 0.11 0.10 0.10 0.15 0.30 0.33 0.46 0.56 0.53 0.59 0.65 0.59 0.45 0.46 0.57 0.67 0.73 0.78 0.76 0.79 0.93 1.10 1.17 1.28 1.25 1.20 1.25 1.26 1.37 1.51 1.54 1.57 1.61 1.61 1.63
0.03 0.02 0.03 0.02 0.06 0.13 0.21 0.19 0.14 0.10 0.07 0.09 0.10 0.18 0.31 0.51 0.64 0.70 0.69 0.67 0.62 0.55 0.60 0.65 0.74 0.80 0.87 0.94 0.92 0.92 1.01 1.04 1.15 1.43 1.53 1.60 1.56 1.58 1.69 1.76 1.72 1.76 1.75 1.71
0.05 0.04 0.04 0.04 0.06 0.08 0.12 0.16 0.13 0.09 0.09 0.09 0.11 0.21 0.35 0.55 0.63 0.71 0.68 0.64 0.62 0.68 0.70 0.77 0.81 0.86 0.89 0.93 1.03 1.10 1.12 1.14 1.33 1.73 1.95 2.03 2.01 2.02 2.04 2.07 2.07 2.09 2.05 2.17
0.11 0.10 0.08 0.06 0.08 0.10 0.15 0.14 0.13 0.11 0.11 0.12 0.18 0.30 0.40 0.54 0.70 0.80 0.73 0.61 0.58 0.61 0.66 0.73 0.86 0.96 0.95 0.94 1.00 1.11 1.23 1.31 1.45 1.71 1.88 1.96 2.02 2.08 2.19 2.24 2.29 2.29 2.31 2.34
0.19 0.20 0.16 0.11 0.13 0.20 0.19 0.20 0.21 0.18 0.20 0.24 0.36 0.48 0.52 0.56 0.65 0.69 0.60 0.58 0.62 0.64 0.74 0.84 0.86 0.97 1.05 1.10 1.18 1.35 1.54 1.71 1.78 1.90 2.09 2.19 2.16 2.15 2.20 2.21 2.15 2.16 2.28 2.31
0.25 0.28 0.25 0.23 0.22 0.22 0.24 0.29 0.29 0.29 0.39 0.47 0.60 0.73 0.79 0.77 0.73 0.82 0.75 0.70 0.70 0.79 0.88 1.05 1.19 1.18 1.24 1.37 1.49 1.58 1.79 1.96 2.02 2.03 2.20 2.33 2.42 2.49 2.39 2.27 2.28 2.30 2.31 2.15
0.29 0.33 0.40 0.35 0.38 0.40 0.35 0.40 0.38 0.42 0.73 0.72 0.81 0.92 0.99 1.04 1.25 1.24 0.98 0.94 0.84 0.82 0.93 1.04 1.25 1.39 1.41 1.57 1.68 1.73 1.81 1.93 2.03 2.01 2.08 2.22 2.31 2.48 2.60 2.54 2.53 2.47 2.36 2.22
0.44 0.47 0.44 0.45 0.50 0.49 0.45 0.43 0.47 0.84 1.18 1.04 1.00 1.07 1.17 1.27 1.29 1.19 1.03 1.06 1.07 0.96 0.93 0.98 1.07 1.23 1.33 1.41 1.50 1.65 1.74 1.75 1.84 1.86 1.84 1.99 2.19 2.36 2.48 2.62 2.64 2.64 2.54 2.41
0.66 0.69 0.64 0.60 0.79 0.90 0.62 0.53 0.79 1.09 1.10 1.25 1.17 1.18 1.27 1.32 1.33 1.30 1.24 1.19 1.13 1.05 0.98 1.01 1.08 1.16 1.24 1.38 1.57 1.72 1.76 1.76 1.76 1.81 1.90 2.02 2.21 2.30 2.30 2.35 2.42 2.53 2.51 2.45
0.88 0.94 0.93 0.94 1.11 1.02 0.75 0.78 0.87 0.91 1.09 1.19 1.22 1.23 1.27 1.29 1.26 1.18 1.08 1.08 1.14 1.07 1.06 1.02 1.08 1.21 1.39 1.56 1.75 1.93 1.93 1.95 1.96 1.98 2.04 2.10 2.20 2.27 2.30 2.28 2.28 2.27 2.22 2.12
0.99 0.86 1.03 1.27 1.42 1.20 1.01 0.94 0.99 1.06 1.18 1.28 1.38 1.46 1.35 1.21 1.13 1.12 1.09 1.06 1.14 1.15 1.09 1.07 1.08 1.16 1.34 1.47 1.56 1.75 1.86 1.89 2.02 1.98 1.91 1.86 1.87 1.92 1.97 2.03 2.05 2.05 2.00 1.94
1.08 1.08 1.24 1.62 1.85 1.71 1.48 1.24 1.17 1.25 1.47 1.66 1.66 1.58 1.48 1.38 1.33 1.38 1.34 1.21 1.13 1.12 1.14 1.14 1.17 1.22 1.27 1.32 1.36 1.46 1.59 1.72 1.92 2.03 1.99 1.97 1.94 1.89 1.90 1.96 2.03 1.91 1.85 1.86
1.03 1.29 1.57 1.89 1.87 1.96 1.85 1.49 1.40 1.43 1.58 1.69 1.65 1.67 1.69 1.63 1.53 1.39 1.32 1.25 1.19 1.12 1.14 1.21 1.27 1.30 1.29 1.29 1.37 1.48 1.61 1.80 2.01 2.04 1.95 1.96 2.02 2.03 2.02 2.00 2.05 2.09 1.90 1.84

GEFSCGP_prec_meanprecacc_240.txt.gz
Total_Precipitation_Accumulation
0.00 0.01 0.01 0.02 0.02 0.03 0.05 0.08 0.17 0.26 0.22 0.31 0.39 0.49 0.64 0.80 1.02 1.04 1.13 1.23 1.48 1.78 2.17 2.84 3.53 4.10 4.77 5.54 6.12 5.99 5.39 4.92 4.38 3.91 3.38 3.31 3.12 2.81 2.52 2.24 1.98 1.94 1.88 1.72
0.01 0.03 0.03 0.03 0.03 0.04 0.06 0.09 0.15 0.21 0.18 0.19 0.32 0.59 0.74 0.81 0.97 0.93 0.94 1.00 1.20 1.55 2.17 2.92 3.52 3.73 3.74 4.03 4.28 3.78 3.58 3.59 3.27 2.99 2.92 2.85 2.72 2.42 2.20 2.05 1.99 1.64 1.64 1.63
0.02 0.04 0.03 0.03 0.03 0.05 0.09 0.11 0.12 0.19 0.19 0.25 0.40 0.75 0.97 0.89 0.89 0.77 0.74 0.96 1.43 1.86 2.29 2.80 2.97 2.96 2.84 2.83 2.81 2.58 2.52 2.85 2.86 2.81 2.77 2.75 2.73 2.59 2.34 2.03 1.98 1.65 1.48 1.50
0.01 0.03 0.03 0.04 0.05 0.05 0.08 0.07 0.05 0.07 0.14 0.37 0.55 0.97 1.14 1.06 1.02 0.77 0.81 1.18 1.69 2.01 2.27 2.24 1.83 1.70 1.85 1.94 2.05 2.30 2.38 2.52 2.47 2.56 2.41 2.23 2.04 1.92 1.84 1.80 1.86 1.86 1.63 1.51
0.03 0.03 0.04 0.05 0.05 0.04 0.05 0.05 0.04 0.07 0.17 0.42 0.71 1.14 1.35 1.15 0.97 0.76 0.75 0.82 1.20 1.36 1.32 1.15 0.98 1.02 1.26 1.53 1.78 2.18 2.27 2.31 2.25 2.22 2.26 2.29 2.13 2.09 1.99 1.94 2.11 2.09 2.07 1.84
0.04 0.04 0.04 0.04 0.03 0.04 0.05 0.06 0.12 0.22 0.40 0.87 0.94 1.03 1.30 1.12 0.90 0.76 0.63 0.59 0.81 0.84 0.68 0.72 0.78 0.96 1.21 1.39 1.50 1.76 1.91 2.08 2.14 2.19 2.28 2.24 2.20 2.26 2.11 1.99 1.93 1.88 1.93 1.86
0.09 0.09 0.06 0.04 0.04 0.04 0.04 0.07 0.28 0.63 0.93 1.07 0.80 0.94 1.24 0.87 0.62 0.54 0.44 0.37 0.41 0.49 0.56 0.72 0.80 0.98 1.08 1.19 1.23 1.38 1.47 1.66 1.85 1.97 2.05 2.09 2.15 2.21 2.07 1.98 1.87 1.81 1.69 1.64
0.15 0.14 0.09 0.04 0.05 0.05 0.05 0.05 0.13 0.25 0.37 0.58 0.75 1.13 1.22 0.83 0.52 0.38 0.32 0.32 0.32 0.39 0.46 0.51 0.60 0.66 0.77 0.92 1.16 1.35 1.33 1.34 1.40 1.48 1.66 1.82 1.86 1.92 1.89 1.98 1.80 1.68 1.57 1.56
0.05 0.04 0.05 0.04 0.05 0.04 0.05 0.04 0.05 0.07 0.11 0.36 0.80 1.07 0.99 0.69 0.51 0.41 0.41 0.43 0.42 0.44 0.49 0.43 0.44 0.56 0.65 0.70 0.83 1.05 1.11 1.14 1.19 1.25 1.38 1.46 1.51 1.64 1.83 1.80 1.62 1.47 1.50 1.52
0.03 0.02 0.03 0.03 0.04 0.04 0.05 0.05 0.05 0.07 0.13 0.28 0.63 1.13 1.29 0.95 0.69 0.55 0.59 0.54 0.47 0.43 0.43 0.49 0.50 0.54 0.62 0.63 0.75 0.92 1.07 1.14 1.16 1.17 1.21 1.16 1.31 1.42 1.58 1.61 1.56 1.47 1.40 1.50
0.02 0.02 0.03 0.03 0.05 0.06 0.06 0.06 0.07 0.09 0.10 0.18 0.46 0.75 0.75 0.80 0.67 0.50 0.54 0.54 0.49 0.42 0.43 0.54 0.53 0.54 0.52 0.52 0.62 0.76 0.95 1.06 1.01 1.05 1.09 1.17 1.26 1.43 1.49 1.45 1.47 1.46 1.45 1.52
0.02 0.02 0.02 0.04 0.07 0.07 0.08 0.09 0.10 0.11 0.12 0.14 0.24 0.41 0.46 0.51 0.60 0.71 0.63 0.62 0.62 0.57 0.48 0.54 0.56 0.53 0.45 0.50 0.60 0.69 0.86 0.99 1.05 1.05 1.12 1.23 1.28 1.36 1.43 1.38 1.45 1.58 1.59 1.64
0.03 0.03 0.04 0.12 0.16 0.15 0.12 0.11 0.11 0.11 0.12 0.12 0.24 0.41 0.41 0.37 0.43 0.53 0.60 0.68 0.64 0.53 0.52 0.54 0.65 0.60 0.51 0.52 0.59 0.72 0.97 1.18 1.34 1.36 1.31 1.27 1.23 1.28 1.40 1.44 1.48 1.57 1.68 1.74
0.03 0.03 0.04 0.09 0.18 0.22 0.21 0.17 0.14 0.11 0.10 0.10 0.15 0.30 0.33 0.46 0.56 0.53 0.59 0.65 0.59 0.45 0.47 0.58 0.69 0.74 0.79 0.77 0.79 0.93 1.11 1.17 1.29 1.25 1.21 1.25 1.27 1.38 1.52 1.56 1.58 1.62 1.62 1.66
0.03 0.02 0.03 0.02 0.06 0.13 0.21 0.19 0.14 0.10 0.07 0.09 0.11 0.18 0.31 0.51 0.65 0.70 0.70 0.68 0.62 0.56 0.61 0.66 0.75 0.82 0.89 0.95 0.94 0.94 1.02 1.04 1.16 1.44 1.54 1.61 1.58 1.60 1.71 1.78 1.74 1.78 1.77 1.73
0.05 0.04 0.04 0.04 0.06 0.08 0.12 0.16 0.13 0.09 0.09 0.09 0.11 0.21 0.35 0.56 0.63 0.71 0.68 0.64 0.63 0.69 0.71 0.77 0.82 0.87 0.90 0.94 1.04 1.10 1.12 1.15 1.33 1.74 1.97 2.06 2.05 2.06 2.08 2.11 2.11 2.14 2.10 2.21
0.12 0.10 0.08 0.06 0.08 0.10 0.15 0.14 0.13 0.11 0.11 0.12 0.18 0.30 0.40 0.55 0.71 0.81 0.73 0.61 0.59 0.61 0.67 0.74 0.86 0.97 0.96 0.95 1.01 1.11 1.24 1.32 1.46 1.72 1.90 1.99 2.06 2.13 2.24 2.29 2.34 2.36 2.39 2.40
0.20 0.21 0.17 0.12 0.13 0.20 0.19 0.21 0.21 0.18 0.20 0.24 0.36 0.48 0.53 0.56 0.66 0.70 0.61 0.59 0.63 0.65 0.75 0.85 0.87 0.98 1.06 1.11 1.20 1.36 1.54 1.72 1.79 1.91 2.10 2.21 2.18 2.19 2.25 2.26 2.20 2.22 2.34 2.37
0.25 0.28 0.25 0.23 0.23 0.22 0.25 0.31 0.30 0.30 0.40 0.47 0.60 0.73 0.80 0.78 0.74 0.83 0.76 0.71 0.72 0.81 0.90 1.07 1.21 1.20 1.26 1.39 1.51 1.60 1.80 1.96 2.03 2.04 2.22 2.35 2.45 2.52 2.43 2.31 2.32 2.35 2.36 2.20
0.30 0.34 0.40 0.35 0.39 0.41 0.37 0.43 0.41 0.44 0.75 0.74 0.82 0.94 1.01 1.06 1.28 1.26 1.00 0.98 0.87 0.85 0.97 1.07 1.28 1.41 1.43 1.59 1.70 1.74 1.83 1.94 2.04 2.02 2.10 2.26 2.36 2.54 2.66 2.59 2.58 2.52 2.41 2.26
0.44 0.48 0.45 0.46 0.51 0.51 0.47 0.45 0.50 0.90 1.26 1.09 1.05 1.11 1.19 1.29 1.31 1.20 1.05 1.10 1.12 0.99 0.96 1.00 1.09 1.25 1.35 1.43 1.52 1.68 1.77 1.77 1.86 1.89 1.88 2.03 2.25 2.42 2.55 2.68 2.69 2.69 2.59 2.45
0.67 0.70 0.65 0.62 0.81 0.92 0.64 0.55 0.83 1.14 1.15 1.28 1.20 1.20 1.29 1.34 1.35 1.32 1.25 1.21 1.16 1.07 1.00 1.03 1.09 1.17 1.26 1.40 1.61 1.78 1.83 1.81 1.81 1.86 1.94 2.06 2.25 2.35 2.37 2.42 2.48 2.58 2.55 2.50
0.90 0.96 0.95 0.97 1.14 1.05 0.77 0.80 0.89 0.93 1.10 1.20 1.23 1.25 1.29 1.31 1.28 1.19 1.10 1.09 1.16 1.08 1.07 1.04 1.09 1.23 1.41 1.58 1.78 1.98 1.98 1.99 2.00 2.03 2.08 2.14 2.24 2.32 2.37 2.35 2.34 2.33 2.27 2.16
1.01 0.87 1.05 1.30 1.46 1.25 1.04 0.96 0.99 1.07 1.19 1.29 1.39 1.47 1.37 1.23 1.15 1.14 1.11 1.08 1.16 1.16 1.11 1.09 1.10 1.18 1.37 1.50 1.60 1.79 1.90 1.93 2.06 2.02 1.94 1.90 1.91 1.96 2.03 2.08 2.10 2.10 2.03 1.97
1.10 1.11 1.27 1.65 1.88 1.74 1.50 1.25 1.19 1.27 1.48 1.67 1.67 1.59 1.50 1.40 1.35 1.40 1.36 1.22 1.14 1.13 1.16 1.16 1.19 1.25 1.31 1.37 1.41 1.50 1.64 1.76 1.96 2.06 2.01 1.99 1.96 1.92 1.94 2.01 2.08 1.95 1.88 1.89
1.06 1.32 1.61 1.92 1.90 1.99 1.88 1.51 1.42 1.46 1.60 1.71 1.67 1.69 1.71 1.65 1.55 1.40 1.33 1.26 1.21 1.14 1.16 1.23 1.29 1.33 1.32 1.33 1.42 1.53 1.66 1.85 2.06 2.08 1.98 1.99 2.04 2.06 2.05 2.04 2.09 2.14 1.95 1.88

GEFSCGP_prec_meanprecacc_246.txt.gz
Total_Precipitation_Accumulation
0.00 0.01 0.01 0.02 0.02 0.03 0.05 0.09 0.17 0.26 0.22 0.31 0.39 0.49 0.64 0.80 1.02 1.04 1.13 1.24 1.48 1.79 2.18 2.84 3.53 4.10 4.78 5.55 6.14 6.02 5.42 4.97 4.47 4.00 3.46 3.39 3.19 2.88 2.58 2.30 2.04 2.01 1.96 1.81
0.01 0.03 0.03 0.03 0.03 0.04 0.06 0.09 0.15 0.21 0.18 0.19 0.32 0.59 0.74 0.82 0.98 0.93 0.94 1.00 1.20 1.55 2.17 2.93 3.53 3.76 3.80 4.06 4.32 3.81 3.61 3.63 3.34 3.12 3.04 2.95 2.79 2.48 2.25 2.09 2.07 1.72 1.72 1.70
0.02 0.04 0.03 0.03 0.03 0.05 0.09 0.11 0.12 0.19 0.20 0.25 0.40 0.76 0.97 0.89 0.89 0.78 0.74 0.96 1.43 1.86 2.29 2.80 2.98 3.00 2.91 2.87 2.85 2.62 2.55 2.88 2.90 2.91 2.91 2.85 2.81 2.65 2.39 2.08 2.05 1.70 1.55 1.57
0.01 0.03 0.03 0.04 0.05 0.05 0.08 0.07 0.05 0.08 0.15 0.37 0.55 0.99 1.17 1.09 1.04 0.78 0.81 1.18 1.69 2.01 2.27 2.25 1.84 1.72 1.86 1.95 2.07 2.33 2.41 2.55 2.50 2.62 2.54 2.38 2.15 2.01 1.91 1.85 1.91 1.90 1.68 1.56
0.03 0.03 0.04 0.05 0.05 0.04 0.05 0.05 0.04 0.07 0.17 0.42 0.71 1.14 1.36 1.17 1.00 0.77 0.75 0.82 1.20 1.37 1.32 1.15 0.98 1.02 1.26 1.53 1.78 2.19 2.29 2.33 2.27 2.25 2.31 2.42 2.30 2.24 2.08 2.01 2.19 2.16 2.13 1.91
0.04 0.04 0.04 0.04 0.03 0.04 0.05 0.06 0.12 0.22 0.40 0.87 0.94 1.03 1.31 1.15 0.95 0.81 0.67 0.60 0.81 0.84 0.69 0.72 0.78 0.96 1.21 1.39 1.50 1.76 1.92 2.09 2.15 2.20 2.30 2.28 2.29 2.40 2.22 2.08 2.01 1.95 2.00 1.96
0.09 0.09 0.06 0.04 0.04 0.04 0.04 0.07 0.28 0.63 0.93 1.08 0.81 0.95 1.26 0.92 0.68 0.58 0.46 0.38 0.41 0.49 0.57 0.72 0.80 0.98 1.08 1.19 1.23 1.38 1.48 1.67 1.86 1.98 2.07 2.12 2.20 2.30 2.18 2.08 1.96 1.89 1.77 1.73
0.15 0.14 0.09 0.04 0.05 0.05 0.05 0.05 0.13 0.25 0.38 0.59 0.76 1.16 1.25 0.87 0.55 0.40 0.35 0.33 0.32 0.40 0.46 0.51 0.61 0.66 0.77 0.92 1.16 1.35 1.34 1.35 1.42 1.49 1.67 1.84 1.89 1.96 1.96 2.09 1.91 1.78 1.66 1.64
0.05 0.04 0.05 0.04 0.05 0.04 0.05 0.04 0.05 0.07 0.11 0.37 0.81 1.08 1.02 0.69 0.51 0.42 0.42 0.44 0.43 0.44 0.50 0.44 0.45 0.57 0.65 0.70 0.83 1.05 1.13 1.15 1.20 1.26 1.39 1.47 1.53 1.67 1.87 1.85 1.68 1.54 1.59 1.61
0.03 0.02 0.03 0.03 0.04 0.04 0.05 0.05 0.05 0.07 0.13 0.28 0.64 1.14 1.35 0.99 0.70 0.55 0.59 0.55 0.49 0.44 0.45 0.51 0.52 0.56 0.62 0.63 0.75 0.92 1.08 1.15 1.17 1.18 1.22 1.17 1.32 1.45 1.61 1.65 1.60 1.51 1.44 1.57
0.02 0.02 0.03 0.03 0.05 0.06 0.06 0.06 0.07 0.09 0.10 0.18 0.47 0.77 0.82 0.86 0.69 0.51 0.55 0.56 0.51 0.44 0.45 0.56 0.55 0.56 0.52 0.52 0.62 0.76 0.96 1.07 1.02 1.06 1.10 1.18 1.27 1.45 1.51 1.48 1.51 1.50 1.49 1.58
0.02 0.02 0.02 0.04 0.07 0.07 0.08 0.09 0.10 0.11 0.12 0.14 0.24 0.43 0.48 0.52 0.61 0.72 0.65 0.63 0.63 0.59 0.50 0.55 0.57 0.54 0.46 0.50 0.60 0.70 0.86 0.99 1.05 1.06 1.13 1.24 1.30 1.37 1.46 1.40 1.48 1.62 1.63 1.68
0.03 0.03 0.04 0.12 0.17 0.15 0.12 0.11 0.11 0.11 0.12 0.12 0.24 0.43 0.42 0.37 0.43 0.53 0.61 0.69 0.65 0.55 0.54 0.56 0.66 0.60 0.51 0.52 0.59 0.72 0.98 1.19 1.34 1.37 1.32 1.28 1.24 1.30 1.42 1.47 1.52 1.62 1.72 1.78
0.03 0.03 0.04 0.10 0.18 0.22 0.21 0.17 0.14 0.11 0.10 0.10 0.16 0.33 0.36 0.47 0.56 0.54 0.59 0.66 0.60 0.47 0.49 0.59 0.70 0.75 0.79 0.78 0.80 0.94 1.12 1.19 1.30 1.26 1.22 1.28 1.29 1.41 1.55 1.59 1.62 1.66 1.66 1.69
0.03 0.02 0.03 0.02 0.06 0.13 0.21 0.20 0.14 0.10 0.07 0.09 0.12 0.20 0.32 0.52 0.65 0.71 0.71 0.68 0.63 0.57 0.61 0.67 0.76 0.83 0.90 0.96 0.95 0.95 1.04 1.05 1.17 1.45 1.56 1.65 1.63 1.66 1.77 1.84 1.79 1.81 1.80 1.76
0.05 0.04 0.04 0.04 0.06 0.08 0.12 0.16 0.13 0.10 0.09 0.09 0.11 0.22 0.36 0.56 0.64 0.73 0.69 0.65 0.64 0.69 0.71 0.78 0.82 0.88 0.92 0.97 1.06 1.12 1.14 1.16 1.36 1.76 2.01 2.10 2.12 2.14 2.17 2.20 2.19 2.20 2.15 2.25
0.12 0.10 0.08 0.06 0.08 0.10 0.15 0.15 0.13 0.12 0.11 0.12 0.19 0.30 0.41 0.56 0.72 0.82 0.74 0.61 0.59 0.63 0.68 0.74 0.87 0.98 0.98 0.99 1.06 1.17 1.28 1.36 1.49 1.76 1.94 2.03 2.12 2.21 2.34 2.38 2.44 2.45 2.47 2.47
0.20 0.21 0.17 0.12 0.13 0.20 0.20 0.21 0.21 0.19 0.20 0.25 0.36 0.49 0.53 0.57 0.67 0.71 0.61 0.59 0.63 0.66 0.75 0.86 0.87 0.99 1.07 1.13 1.23 1.43 1.64 1.79 1.85 1.96 2.15 2.25 2.21 2.23 2.30 2.32 2.27 2.29 2.44 2.47
0.25 0.29 0.26 0.23 0.23 0.23 0.27 0.32 0.31 0.31 0.42 0.48 0.61 0.74 0.81 0.78 0.75 0.84 0.77 0.72 0.73 0.82 0.91 1.08 1.22 1.21 1.28 1.40 1.53 1.65 1.92 2.05 2.09 2.10 2.28 2.41 2.49 2.55 2.45 2.34 2.35 2.39 2.43 2.29
0.30 0.35 0.41 0.36 0.40 0.42 0.39 0.43 0.41 0.46 0.80 0.75 0.83 0.94 1.01 1.07 1.29 1.28 1.01 0.98 0.88 0.86 0.98 1.09 1.28 1.42 1.44 1.60 1.72 1.77 1.87 1.99 2.09 2.08 2.16 2.32 2.41 2.57 2.68 2.61 2.62 2.57 2.47 2.34
0.45 0.49 0.46 0.46 0.52 0.52 0.47 0.45 0.50 0.92 1.30 1.11 1.06 1.12 1.20 1.30 1.33 1.22 1.06 1.10 1.13 0.99 0.97 1.01 1.09 1.26 1.36 1.44 1.53 1.70 1.80 1.80 1.90 1.94 1.93 2.07 2.28 2.45 2.57 2.70 2.73 2.73 2.65 2.52
0.68 0.72 0.67 0.64 0.83 0.94 0.65 0.56 0.84 1.15 1.16 1.29 1.21 1.21 1.30 1.35 1.37 1.34 1.27 1.22 1.16 1.08 1.00 1.03 1.10 1.19 1.28 1.42 1.63 1.81 1.86 1.84 1.84 1.89 1.99 2.11 2.29 2.38 2.39 2.45 2.52 2.63 2.62 2.56
0.92 0.98 0.98 0.99 1.16 1.06 0.77 0.81 0.90 0.93 1.10 1.21 1.24 1.25 1.30 1.33 1.31 1.22 1.11 1.10 1.16 1.09 1.08 1.04 1.10 1.25 1.44 1.62 1.81 2.01 2.01 2.02 2.03 2.06 2.12 2.19 2.28 2.35 2.39 2.38 2.39 2.39 2.35 2.24
1.03 0.88 1.07 1.32 1.47 1.25 1.05 0.98 1.01 1.08 1.20 1.30 1.40 1.48 1.40 1.28 1.19 1.17 1.14 1.10 1.17 1.17 1.12 1.10 1.11 1.21 1.41 1.54 1.63 1.82 1.93 1.97 2.10 2.06 1.98 1.94 1.95 2.00 2.07 2.12 2.14 2.14 2.09 2.03
1.13 1.13 1.29 1.68 1.90 1.76 1.54 1.31 1.22 1.28 1.51 1.69 1.68 1.60 1.53 1.49 1.43 1.44 1.38 1.24 1.16 1.15 1.18 1.18 1.21 1.27 1.34 1.40 1.45 1.55 1.68 1.81 2.01 2.10 2.05 2.03 2.01 1.97 1.99 2.05 2.11 1.98 1.92 1.95
1.07 1.36 1.66 1.98 1.94 2.04 1.91 1.54 1.44 1.47 1.63 1.73 1.68 1.71 1.74 1.71 1.61 1.44 1.36 1.29 1.22 1.15 1.17 1.26 1.32 1.36 1.36 1.37 1.46 1.57 1.72 1.92 2.13 2.14 2.03 2.03 2.08 2.11 2.11 2.09 2.14 2.19 1.99 1.95

GEFSCGP_prec_meanprecacc_252.txt.gz
Total_Precipitation_Accumulation
0.00 0.01 0.02 0.02 0.02 0.03 0.05 0.09 0.18 0.27 0.22 0.32 0.42 0.51 0.65 0.82 1.04 1.08 1.15 1.25 1.50 1.80 2.21 2.93 3.56 4.12 4.80 5.57 6.15 6.04 5.44 4.98 4.48 4.02 3.51 3.45 3.24 2.93 2.65 2.38 2.12 2.07 1.99 1.84
0.01 0.03 0.03 0.03 0.03 0.04 0.06 0.10 0.16 0.22 0.19 0.20 0.35 0.60 0.76 0.84 1.01 0.97 0.97 1.02 1.22 1.58 2.20 2.95 3.54 3.76 3.81 4.08 4.33 3.82 3.62 3.64 3.34 3.13 3.09 3.03 2.85 2.53 2.29 2.13 2.10 1.75 1.75 1.74
0.02 0.04 0.03 0.03 0.03 0.05 0.09 0.11 0.13 0.20 0.21 0.27 0.42 0.79 1.00 0.93 0.95 0.81 0.79 1.01 1.48 1.90 2.31 2.82 2.99 3.01 2.92 2.88 2.86 2.62 2.57 2.89 2.91 2.92 2.95 2.96 2.92 2.73 2.45 2.11 2.07 1.73 1.58 1.62
0.01 0.03 0.03 0.05 0.05 0.05 0.08 0.07 0.06 0.08 0.16 0.40 0.57 1.02 1.23 1.16 1.09 0.82 0.87 1.27 1.76 2.06 2.31 2.28 1.85 1.72 1.87 1.96 2.08 2.34 2.42 2.56 2.51 2.63 2.55 2.46 2.28 2.11 1.98 1.89 1.93 1.92 1.71 1.63
0.03 0.03 0.04 0.05 0.05 0.04 0.05 0.05 0.04 0.07 0.18 0.43 0.72 1.16 1.42 1.31 1.08 0.85 0.82 0.88 1.26 1.41 1.36 1.18 1.00 1.03 1.27 1.53 1.78 2.19 2.29 2.34 2.28 2.26 2.32 2.44 2.38 2.37 2.20 2.08 2.23 2.20 2.18 1.95
0.04 0.04 0.04 0.04 0.03 0.04 0.05 0.06 0.12 0.22 0.40 0.88 0.95 1.04 1.35 1.25 1.03 0.89 0.76 0.67 0.87 0.91 0.74 0.75 0.81 0.98 1.22 1.39 1.50 1.77 1.93 2.11 2.16 2.21 2.31 2.29 2.31 2.46 2.35 2.20 2.09 2.00 2.04 1.99
0.09 0.09 0.06 0.04 0.04 0.04 0.04 0.07 0.28 0.63 0.94 1.08 0.82 0.96 1.29 0.96 0.76 0.65 0.53 0.46 0.46 0.55 0.62 0.77 0.85 1.03 1.12 1.23 1.26 1.40 1.49 1.69 1.88 1.99 2.08 2.13 2.21 2.32 2.26 2.22 2.09 2.00 1.85 1.78
0.15 0.14 0.09 0.04 0.05 0.05 0.05 0.05 0.13 0.25 0.38 0.60 0.77 1.18 1.28 0.90 0.59 0.44 0.39 0.38 0.38 0.46 0.54 0.59 0.70 0.77 0.82 0.97 1.20 1.37 1.35 1.37 1.43 1.50 1.68 1.85 1.90 1.97 1.99 2.16 2.00 1.89 1.79 1.74
0.05 0.04 0.05 0.04 0.05 0.04 0.05 0.04 0.05 0.08 0.11 0.37 0.81 1.11 1.07 0.74 0.56 0.51 0.48 0.50 0.51 0.51 0.61 0.57 0.58 0.73 0.78 0.74 0.87 1.07 1.14 1.17 1.22 1.28 1.41 1.49 1.54 1.68 1.87 1.85 1.69 1.56 1.64 1.72
0.03 0.02 0.03 0.03 0.04 0.04 0.05 0.05 0.05 0.07 0.13 0.28 0.66 1.17 1.42 1.12 0.80 0.63 0.67 0.59 0.53 0.47 0.53 0.63 0.62 0.68 0.73 0.69 0.81 0.95 1.09 1.16 1.18 1.19 1.24 1.19 1.33 1.45 1.62 1.66 1.61 1.52 1.46 1.60
0.02 0.02 0.03 0.03 0.05 0.06 0.06 0.06 0.07 0.09 0.10 0.19 0.49 0.80 0.86 0.95 0.80 0.60 0.64 0.60 0.53 0.47 0.48 0.60 0.62 0.64 0.62 0.59 0.68 0.83 1.00 1.10 1.04 1.07 1.12 1.20 1.29 1.46 1.53 1.49 1.52 1.51 1.51 1.61
0.02 0.02 0.02 0.04 0.07 0.07 0.08 0.09 0.10 0.11 0.13 0.14 0.25 0.44 0.49 0.54 0.65 0.85 0.81 0.67 0.66 0.62 0.54 0.58 0.61 0.61 0.53 0.55 0.65 0.75 0.93 1.07 1.10 1.09 1.16 1.26 1.32 1.41 1.48 1.42 1.49 1.63 1.66 1.71
0.03 0.03 0.04 0.12 0.17 0.15 0.12 0.11 0.11 0.11 0.12 0.12 0.24 0.44 0.45 0.43 0.45 0.60 0.72 0.80 0.71 0.58 0.57 0.59 0.69 0.64 0.56 0.56 0.63 0.78 1.03 1.24 1.40 1.42 1.37 1.33 1.28 1.35 1.45 1.50 1.55 1.65 1.76 1.83
0.03 0.03 0.04 0.10 0.18 0.22 0.21 0.17 0.14 0.11 0.10 0.10 0.16 0.34 0.39 0.51 0.59 0.57 0.69 0.83 0.69 0.52 0.53 0.63 0.73 0.78 0.82 0.80 0.83 0.97 1.16 1.23 1.35 1.32 1.28 1.33 1.35 1.46 1.60 1.65 1.69 1.73 1.74 1.80
0.03 0.03 0.03 0.03 0.06 0.13 0.21 0.20 0.14 0.10 0.08 0.10 0.12 0.21 0.35 0.54 0.68 0.75 0.79 0.83 0.70 0.61 0.66 0.70 0.79 0.85 0.91 0.97 0.96 0.97 1.07 1.10 1.22 1.50 1.61 1.72 1.72 1.74 1.85 1.91 1.86 1.90 1.90 1.87
0.06 0.05 0.04 0.04 0.06 0.08 0.12 0.16 0.13 0.10 0.10 0.11 0.14 0.24 0.38 0.58 0.66 0.75 0.73 0.74 0.71 0.73 0.76 0.83 0.88 0.91 0.95 1.00 1.09 1.15 1.16 1.19 1.39 1.81 2.06 2.16 2.19 2.23 2.27 2.30 2.29 2.31 2.26 2.37
0.12 0.11 0.09 0.06 0.08 0.10 0.16 0.15 0.14 0.13 0.13 0.17 0.22 0.32 0.42 0.57 0.74 0.85 0.75 0.63 0.64 0.67 0.72 0.79 0.93 1.04 1.04 1.05 1.11 1.21 1.31 1.38 1.53 1.82 2.01 2.12 2.22 2.32 2.44 2.48 2.52 2.53 2.56 2.56
0.20 0.21 0.18 0.12 0.13 0.20 0.20 0.22 0.22 0.21 0.23 0.26 0.38 0.49 0.54 0.58 0.68 0.72 0.62 0.60 0.64 0.67 0.78 0.89 0.92 1.05 1.13 1.21 1.32 1.52 1.68 1.84 1.91 2.04 2.23 2.34 2.30 2.31 2.39 2.42 2.37 2.39 2.51 2.54
0.25 0.29 0.27 0.24 0.23 0.23 0.27 0.32 0.31 0.32 0.44 0.51 0.63 0.76 0.81 0.79 0.77 0.86 0.78 0.72 0.73 0.82 0.92 1.10 1.24 1.27 1.35 1.46 1.60 1.75 1.99 2.11 2.14 2.15 2.33 2.46 2.55 2.62 2.52 2.41 2.43 2.48 2.52 2.38
0.30 0.35 0.41 0.36 0.40 0.43 0.39 0.44 0.42 0.46 0.83 0.78 0.84 0.95 1.02 1.08 1.31 1.30 1.03 1.00 0.89 0.87 0.99 1.10 1.30 1.44 1.49 1.64 1.75 1.81 1.91 2.03 2.15 2.14 2.21 2.37 2.47 2.64 2.74 2.68 2.69 2.65 2.56 2.44
0.46 0.49 0.46 0.47 0.53 0.53 0.48 0.46 0.51 0.94 1.32 1.12 1.07 1.12 1.20 1.31 1.34 1.24 1.08 1.12 1.15 1.01 0.99 1.03 1.11 1.27 1.38 1.48 1.57 1.74 1.84 1.84 1.94 1.98 1.97 2.13 2.35 2.52 2.64 2.77 2.78 2.79 2.71 2.58
0.70 0.73 0.68 0.65 0.84 0.95 0.65 0.56 0.86 1.17 1.17 1.30 1.22 1.22 1.31 1.36 1.38 1.35 1.30 1.24 1.19 1.10 1.02 1.05 1.12 1.20 1.30 1.44 1.67 1.86 1.91 1.88 1.88 1.93 2.04 2.17 2.37 2.46 2.47 2.53 2.60 2.70 2.67 2.61
0.95 1.01 1.00 1.02 1.17 1.07 0.77 0.81 0.91 0.95 1.12 1.22 1.25 1.27 1.31 1.34 1.32 1.24 1.16 1.15 1.20 1.12 1.10 1.07 1.12 1.27 1.46 1.64 1.84 2.05 2.07 2.06 2.07 2.11 2.18 2.26 2.36 2.43 2.48 2.47 2.46 2.46 2.42 2.31
1.04 0.90 1.09 1.34 1.49 1.27 1.06 0.99 1.03 1.11 1.23 1.33 1.44 1.51 1.42 1.30 1.20 1.21 1.21 1.17 1.23 1.22 1.15 1.13 1.14 1.24 1.45 1.56 1.66 1.85 1.97 2.01 2.14 2.11 2.03 2.00 2.02 2.08 2.16 2.21 2.24 2.24 2.19 2.12
1.13 1.14 1.31 1.70 1.92 1.78 1.56 1.33 1.26 1.33 1.59 1.76 1.74 1.66 1.57 1.52 1.46 1.49 1.46 1.34 1.25 1.22 1.23 1.23 1.26 1.32 1.38 1.43 1.48 1.58 1.70 1.84 2.04 2.14 2.09 2.08 2.07 2.06 2.08 2.15 2.21 2.07 2.01 2.03
1.08 1.37 1.68 2.01 1.97 2.06 1.93 1.57 1.51 1.53 1.69 1.82 1.76 1.76 1.80 1.79 1.69 1.52 1.44 1.37 1.34 1.30 1.29 1.34 1.38 1.40 1.39 1.40 1.49 1.61 1.75 1.95 2.18 2.19 2.08 2.09 2.14 2.18 2.20 2.20 2.24 2.28 2.07 2.03

GEFSCGP_prec_meanprecacc_258.txt.gz
Total_Precipitation_Accumulation
0.00 0.01 0.02 0.02 0.02 0.03 0.05 0.09 0.18 0.27 0.23 0.33 0.43 0.51 0.66 0.82 1.04 1.09 1.16 1.25 1.50 1.81 2.21 2.93 3.57 4.13 4.82 5.58 6.16 6.06 5.45 4.98 4.49 4.05 3.55 3.49 3.29 2.99 2.73 2.50 2.27 2.17 2.05 1.88
0.01 0.03 0.03 0.03 0.03 0.04 0.06 0.10 0.17 0.22 0.19 0.21 0.36 0.60 0.76 0.84 1.02 0.97 0.97 1.02 1.23 1.59 2.21 2.96 3.55 3.77 3.81 4.09 4.34 3.83 3.64 3.65 3.36 3.17 3.12 3.06 2.90 2.58 2.34 2.20 2.23 1.88 1.81 1.78
0.02 0.04 0.03 0.03 0.03 0.05 0.09 0.11 0.13 0.20 0.22 0.28 0.43 0.80 1.00 0.93 0.95 0.82 0.80 1.02 1.49 1.91 2.33 2.83 3.00 3.02 2.93 2.89 2.87 2.64 2.58 2.90 2.93 2.99 3.00 2.99 2.97 2.78 2.50 2.18 2.17 1.83 1.64 1.67
0.01 0.03 0.03 0.05 0.05 0.05 0.08 0.07 0.06 0.09 0.17 0.41 0.58 1.03 1.24 1.16 1.10 0.82 0.87 1.27 1.77 2.08 2.32 2.29 1.88 1.74 1.90 1.99 2.10 2.36 2.44 2.57 2.53 2.67 2.60 2.50 2.31 2.16 2.04 1.95 2.01 2.00 1.77 1.67
0.03 0.03 0.04 0.05 0.05 0.04 0.05 0.05 0.04 0.08 0.18 0.44 0.73 1.16 1.43 1.32 1.09 0.85 0.83 0.89 1.28 1.42 1.37 1.22 1.08 1.12 1.35 1.62 1.84 2.21 2.31 2.35 2.29 2.28 2.37 2.50 2.44 2.42 2.27 2.15 2.30 2.26 2.23 2.01
0.04 0.04 0.04 0.04 0.03 0.04 0.05 0.06 0.13 0.22 0.41 0.88 0.95 1.05 1.35 1.25 1.03 0.91 0.78 0.69 0.89 0.92 0.75 0.78 0.88 1.08 1.32 1.46 1.55 1.79 1.94 2.12 2.17 2.23 2.34 2.33 2.36 2.51 2.44 2.32 2.19 2.07 2.11 2.06
0.09 0.09 0.06 0.04 0.04 0.04 0.04 0.07 0.28 0.63 0.94 1.08 0.82 0.97 1.29 0.97 0.77 0.65 0.54 0.47 0.48 0.56 0.63 0.78 0.88 1.07 1.16 1.26 1.30 1.45 1.51 1.71 1.90 2.01 2.09 2.15 2.24 2.36 2.34 2.33 2.22 2.11 1.94 1.87
0.15 0.14 0.09 0.04 0.05 0.05 0.05 0.05 0.13 0.25 0.38 0.60 0.77 1.18 1.28 0.90 0.59 0.45 0.41 0.41 0.40 0.47 0.55 0.61 0.72 0.81 0.85 1.00 1.22 1.40 1.38 1.40 1.46 1.53 1.70 1.86 1.91 1.99 2.02 2.27 2.15 2.04 1.93 1.86
0.05 0.04 0.05 0.04 0.05 0.04 0.05 0.04 0.05 0.08 0.11 0.37 0.81 1.11 1.07 0.74 0.57 0.51 0.50 0.51 0.52 0.52 0.62 0.59 0.60 0.76 0.81 0.77 0.90 1.11 1.17 1.19 1.24 1.29 1.42 1.50 1.55 1.69 1.88 1.88 1.72 1.59 1.69 1.82
0.03 0.02 0.03 0.03 0.04 0.04 0.05 0.05 0.05 0.07 0.13 0.28 0.66 1.17 1.42 1.12 0.81 0.63 0.68 0.60 0.54 0.48 0.54 0.64 0.64 0.70 0.76 0.73 0.87 1.01 1.12 1.18 1.20 1.22 1.26 1.21 1.35 1.46 1.64 1.67 1.62 1.53 1.47 1.62
0.02 0.02 0.03 0.03 0.05 0.06 0.06 0.06 0.07 0.09 0.10 0.19 0.49 0.80 0.86 0.95 0.80 0.60 0.64 0.60 0.54 0.47 0.49 0.61 0.62 0.66 0.66 0.66 0.77 0.90 1.05 1.14 1.07 1.11 1.15 1.23 1.32 1.50 1.57 1.53 1.55 1.54 1.54 1.63
0.02 0.02 0.02 0.04 0.07 0.07 0.08 0.09 0.10 0.11 0.13 0.14 0.25 0.44 0.49 0.54 0.65 0.85 0.81 0.68 0.66 0.62 0.54 0.59 0.62 0.63 0.56 0.59 0.69 0.80 0.98 1.12 1.15 1.13 1.20 1.30 1.37 1.46 1.53 1.47 1.54 1.68 1.70 1.74
0.03 0.03 0.04 0.12 0.17 0.15 0.12 0.11 0.11 0.11 0.12 0.12 0.24 0.44 0.46 0.44 0.46 0.60 0.73 0.81 0.71 0.58 0.58 0.60 0.70 0.65 0.57 0.58 0.65 0.80 1.07 1.28 1.43 1.47 1.42 1.39 1.33 1.40 1.51 1.56 1.61 1.72 1.83 1.90
0.03 0.04 0.04 0.10 0.18 0.22 0.21 0.17 0.14 0.11 0.10 0.10 0.16 0.34 0.40 0.52 0.59 0.57 0.69 0.84 0.70 0.53 0.54 0.65 0.75 0.79 0.83 0.82 0.85 0.99 1.18 1.25 1.36 1.34 1.30 1.37 1.39 1.52 1.66 1.71 1.76 1.83 1.85 1.91
0.03 0.03 0.03 0.03 0.06 0.13 0.21 0.20 0.14 0.10 0.08 0.10 0.12 0.21 0.36 0.55 0.69 0.76 0.79 0.84 0.72 0.62 0.67 0.72 0.80 0.86 0.93 0.99 0.98 0.99 1.09 1.11 1.24 1.52 1.64 1.75 1.76 1.79 1.91 1.99 1.95 1.99 1.99 1.97
0.06 0.05 0.04 0.04 0.06 0.09 0.13 0.17 0.13 0.10 0.10 0.11 0.14 0.24 0.38 0.59 0.67 0.76 0.74 0.75 0.72 0.75 0.77 0.85 0.89 0.93 0.96 1.01 1.11 1.17 1.18 1.21 1.41 1.83 2.08 2.19 2.24 2.28 2.33 2.38 2.37 2.39 2.33 2.43
0.12 0.11 0.09 0.06 0.08 0.11 0.16 0.15 0.14 0.13 0.13 0.17 0.22 0.32 0.42 0.57 0.75 0.86 0.76 0.64 0.65 0.68 0.73 0.81 0.96 1.07 1.06 1.08 1.16 1.25 1.33 1.40 1.55 1.84 2.04 2.14 2.26 2.37 2.53 2.57 2.60 2.59 2.60 2.61
0.20 0.21 0.18 0.12 0.14 0.21 0.21 0.22 0.23 0.22 0.24 0.27 0.38 0.50 0.54 0.58 0.68 0.73 0.63 0.61 0.65 0.68 0.79 0.90 0.94 1.08 1.17 1.25 1.37 1.59 1.76 1.89 1.94 2.07 2.26 2.37 2.35 2.37 2.45 2.47 2.41 2.43 2.56 2.59
0.25 0.29 0.27 0.24 0.24 0.23 0.27 0.33 0.33 0.34 0.45 0.51 0.64 0.76 0.82 0.80 0.77 0.87 0.79 0.73 0.74 0.83 0.93 1.11 1.25 1.28 1.37 1.47 1.61 1.78 2.04 2.17 2.19 2.18 2.36 2.50 2.59 2.66 2.56 2.45 2.48 2.53 2.57 2.43
0.30 0.35 0.41 0.36 0.41 0.43 0.40 0.45 0.43 0.48 0.83 0.78 0.84 0.96 1.02 1.09 1.32 1.31 1.03 1.01 0.91 0.88 1.00 1.11 1.30 1.45 1.49 1.65 1.75 1.83 1.96 2.08 2.18 2.17 2.25 2.41 2.51 2.67 2.78 2.71 2.72 2.68 2.60 2.49
0.46 0.49 0.46 0.47 0.53 0.53 0.48 0.46 0.52 0.95 1.33 1.12 1.07 1.13 1.21 1.33 1.35 1.25 1.09 1.13 1.16 1.02 1.00 1.04 1.11 1.28 1.39 1.49 1.58 1.75 1.86 1.87 1.97 2.02 2.01 2.16 2.38 2.55 2.67 2.79 2.82 2.83 2.75 2.63
0.70 0.74 0.69 0.66 0.84 0.95 0.65 0.57 0.87 1.18 1.18 1.30 1.23 1.23 1.33 1.37 1.39 1.37 1.32 1.26 1.20 1.12 1.04 1.06 1.13 1.22 1.31 1.45 1.68 1.88 1.92 1.90 1.91 1.98 2.08 2.21 2.40 2.49 2.50 2.56 2.64 2.77 2.76 2.69
0.96 1.02 1.01 1.02 1.18 1.07 0.78 0.81 0.92 0.96 1.14 1.24 1.27 1.28 1.33 1.35 1.33 1.27 1.19 1.18 1.23 1.15 1.14 1.11 1.15 1.30 1.48 1.66 1.86 2.07 2.09 2.11 2.13 2.17 2.26 2.33 2.41 2.49 2.53 2.52 2.52 2.54 2.52 2.42
1.04 0.90 1.09 1.34 1.49 1.27 1.07 0.99 1.03 1.12 1.25 1.35 1.46 1.53 1.44 1.33 1.24 1.25 1.25 1.21 1.27 1.27 1.21 1.18 1.18 1.28 1.47 1.59 1.69 1.88 2.01 2.05 2.19 2.17 2.11 2.10 2.12 2.18 2.24 2.31 2.32 2.32 2.27 2.21
1.13 1.14 1.31 1.70 1.92 1.78 1.56 1.34 1.27 1.34 1.60 1.77 1.76 1.69 1.60 1.56 1.51 1.55 1.52 1.38 1.30 1.27 1.29 1.29 1.31 1.36 1.42 1.46 1.51 1.62 1.75 1.88 2.08 2.18 2.14 2.14 2.15 2.15 2.17 2.24 2.30 2.17 2.09 2.11
1.08 1.37 1.69 2.02 1.98 2.07 1.94 1.58 1.52 1.54 1.70 1.83 1.77 1.78 1.83 1.81 1.72 1.58 1.50 1.44 1.40 1.35 1.35 1.39 1.44 1.46 1.44 1.43 1.53 1.65 1.79 2.00 2.22 2.23 2.13 2.14 2.20 2.25 2.27 2.27 2.30 2.34 2.13 2.08

GEFSCGP_prec_meanprecacc_264.txt.gz
Total_Precipitation_Accumulation
0.00 0.01 0.02 0.02 0.02 0.03 0.05 0.09 0.18 0.27 0.23 0.33 0.43 0.51 0.66 0.82 1.04 1.09 1.16 1.26 1.51 1.81 2.21 2.93 3.57 4.13 4.82 5.59 6.17 6.07 5.46 5.00 4.51 4.09 3.60 3.54 3.35 3.08 2.85 2.61 2.39 2.32 2.18 1.98
0.01 0.03 0.03 0.03 0.03 0.04 0.06 0.10 0.17 0.22 0.19 0.21 0.36 0.61 0.76 0.84 1.02 0.98 0.97 1.03 1.23 1.59 2.21 2.96 3.55 3.78 3.82 4.09 4.34 3.84 3.64 3.66 3.37 3.21 3.21 3.13 2.96 2.66 2.43 2.29 2.35 2.02 1.97 1.92
0.02 0.04 0.03 0.03 0.03 0.05 0.09 0.11 0.13 0.20 0.22 0.28 0.43 0.80 1.01 0.93 0.95 0.82 0.80 1.02 1.49 1.91 2.33 2.83 3.01 3.02 2.93 2.89 2.87 2.64 2.59 2.91 2.94 3.02 3.08 3.07 3.03 2.85 2.58 2.27 2.26 1.93 1.76 1.80
0.01 0.03 0.03 0.05 0.05 0.05 0.08 0.07 0.06 0.09 0.17 0.41 0.58 1.03 1.24 1.16 1.10 0.82 0.88 1.27 1.77 2.08 2.32 2.29 1.88 1.74 1.90 1.99 2.11 2.37 2.46 2.59 2.55 2.71 2.68 2.59 2.37 2.22 2.09 2.01 2.08 2.10 1.90 1.78
0.03 0.03 0.04 0.05 0.05 0.04 0.05 0.05 0.04 0.08 0.18 0.44 0.73 1.16 1.43 1.32 1.09 0.86 0.83 0.89 1.28 1.42 1.37 1.22 1.09 1.12 1.36 1.64 1.91 2.27 2.36 2.40 2.33 2.32 2.44 2.60 2.50 2.48 2.32 2.19 2.38 2.38 2.35 2.09
0.04 0.04 0.04 0.04 0.03 0.04 0.05 0.06 0.13 0.22 0.41 0.88 0.95 1.05 1.35 1.25 1.04 0.91 0.78 0.69 0.89 0.92 0.75 0.78 0.89 1.09 1.33 1.49 1.66 1.92 2.04 2.20 2.23 2.28 2.39 2.42 2.45 2.58 2.50 2.37 2.25 2.16 2.20 2.13
0.09 0.09 0.06 0.04 0.04 0.04 0.04 0.07 0.28 0.63 0.94 1.08 0.82 0.97 1.29 0.97 0.77 0.65 0.54 0.47 0.48 0.56 0.64 0.79 0.88 1.08 1.17 1.28 1.33 1.51 1.57 1.76 1.94 2.06 2.14 2.22 2.34 2.45 2.40 2.39 2.28 2.18 2.02 1.94
0.15 0.14 0.09 0.04 0.05 0.05 0.05 0.05 0.13 0.25 0.38 0.60 0.77 1.18 1.28 0.90 0.59 0.45 0.41 0.41 0.40 0.47 0.55 0.61 0.73 0.81 0.86 1.02 1.24 1.41 1.40 1.42 1.49 1.57 1.74 1.91 1.97 2.08 2.12 2.36 2.23 2.13 2.04 1.97
0.05 0.04 0.05 0.04 0.05 0.04 0.05 0.04 0.05 0.08 0.11 0.37 0.81 1.11 1.07 0.74 0.57 0.51 0.50 0.51 0.52 0.52 0.62 0.60 0.61 0.77 0.82 0.79 0.91 1.12 1.18 1.21 1.26 1.32 1.45 1.53 1.57 1.73 1.95 1.99 1.83 1.67 1.76 1.89
0.03 0.02 0.03 0.03 0.04 0.04 0.05 0.05 0.05 0.07 0.13 0.28 0.66 1.17 1.42 1.12 0.81 0.63 0.68 0.60 0.54 0.48 0.54 0.64 0.65 0.71 0.77 0.75 0.89 1.02 1.13 1.20 1.22 1.23 1.28 1.23 1.38 1.50 1.67 1.73 1.71 1.62 1.55 1.69
0.02 0.02 0.03 0.03 0.05 0.06 0.06 0.06 0.07 0.09 0.10 0.19 0.49 0.80 0.86 0.95 0.80 0.60 0.64 0.60 0.54 0.47 0.49 0.61 0.63 0.67 0.67 0.66 0.78 0.92 1.07 1.15 1.09 1.13 1.18 1.26 1.35 1.53 1.59 1.56 1.60 1.62 1.63 1.72
0.02 0.02 0.02 0.04 0.07 0.07 0.08 0.09 0.10 0.11 0.13 0.14 0.25 0.44 0.49 0.54 0.65 0.85 0.81 0.68 0.66 0.62 0.54 0.59 0.62 0.64 0.57 0.59 0.69 0.81 0.99 1.12 1.16 1.14 1.22 1.32 1.40 1.48 1.56 1.50 1.58 1.74 1.78 1.83
0.03 0.03 0.04 0.12 0.17 0.15 0.12 0.11 0.11 0.11 0.12 0.12 0.24 0.44 0.46 0.44 0.46 0.60 0.73 0.81 0.71 0.59 0.58 0.60 0.70 0.66 0.59 0.60 0.65 0.80 1.07 1.28 1.44 1.47 1.43 1.41 1.36 1.42 1.54 1.61 1.67 1.78 1.90 1.97
0.03 0.04 0.04 0.10 0.18 0.22 0.21 0.17 0.14 0.11 0.10 0.10 0.16 0.34 0.40 0.52 0.59 0.57 0.69 0.84 0.70 0.54 0.55 0.65 0.75 0.80 0.85 0.85 0.86 1.00 1.18 1.25 1.36 1.34 1.31 1.38 1.41 1.53 1.68 1.74 1.81 1.88 1.91 1.97
0.03 0.03 0.03 0.03 0.06 0.13 0.21 0.20 0.14 0.10 0.08 0.10 0.12 0.21 0.36 0.55 0.69 0.76 0.79 0.84 0.72 0.63 0.67 0.72 0.80 0.87 0.94 1.02 1.01 1.00 1.09 1.11 1.24 1.53 1.64 1.76 1.77 1.81 1.93 2.01 1.98 2.02 2.03 2.01
0.06 0.05 0.04 0.04 0.06 0.09 0.13 0.17 0.13 0.10 0.10 0.11 0.14 0.24 0.38 0.59 0.67 0.76 0.74 0.76 0.72 0.75 0.77 0.85 0.90 0.93 0.97 1.04 1.15 1.18 1.19 1.22 1.42 1.83 2.09 2.19 2.24 2.29 2.34 2.39 2.39 2.40 2.36 2.46
0.12 0.11 0.09 0.06 0.08 0.11 0.16 0.15 0.14 0.13 0.13 0.17 0.22 0.32 0.42 0.57 0.75 0.86 0.76 0.64 0.65 0.68 0.73 0.81 0.96 1.08 1.08 1.12 1.21 1.30 1.36 1.42 1.57 1.85 2.05 2.15 2.26 2.38 2.54 2.58 2.61 2.61 2.63 2.63
0.20 0.21 0.18 0.12 0.14 0.21 0.21 0.22 0.24 0.23 0.24 0.27 0.38 0.50 0.54 0.59 0.69 0.73 0.63 0.61 0.65 0.68 0.79 0.90 0.95 1.10 1.20 1.29 1.42 1.64 1.82 1.94 1.98 2.09 2.26 2.37 2.35 2.38 2.46 2.47 2.42 2.45 2.58 2.60
0.25 0.29 0.27 0.24 0.24 0.24 0.27 0.33 0.34 0.35 0.46 0.52 0.64 0.76 0.82 0.80 0.78 0.87 0.80 0.74 0.74 0.84 0.94 1.12 1.26 1.30 1.40 1.51 1.63 1.79 2.06 2.19 2.23 2.21 2.37 2.51 2.60 2.67 2.57 2.46 2.49 2.54 2.59 2.47
0.30 0.35 0.41 0.36 0.41 0.44 0.40 0.45 0.43 0.48 0.84 0.79 0.85 0.96 1.02 1.09 1.32 1.31 1.04 1.01 0.91 0.89 1.01 1.12 1.32 1.46 1.51 1.68 1.77 1.84 1.97 2.09 2.19 2.19 2.26 2.42 2.52 2.69 2.79 2.72 2.73 2.69 2.62 2.51
0.46 0.49 0.46 0.47 0.53 0.54 0.49 0.47 0.53 0.96 1.34 1.13 1.08 1.13 1.21 1.33 1.36 1.25 1.10 1.14 1.17 1.03 1.01 1.05 1.13 1.29 1.39 1.50 1.60 1.76 1.87 1.89 1.99 2.03 2.02 2.17 2.39 2.57 2.69 2.81 2.82 2.84 2.75 2.64
0.71 0.74 0.69 0.66 0.84 0.95 0.66 0.59 0.89 1.20 1.19 1.32 1.24 1.23 1.33 1.38 1.40 1.38 1.33 1.27 1.20 1.13 1.05 1.08 1.15 1.23 1.32 1.46 1.70 1.90 1.95 1.93 1.93 2.00 2.10 2.22 2.41 2.51 2.52 2.58 2.66 2.79 2.77 2.71
0.96 1.02 1.02 1.03 1.18 1.07 0.78 0.83 0.94 0.97 1.15 1.25 1.28 1.29 1.34 1.36 1.34 1.27 1.20 1.19 1.23 1.17 1.16 1.13 1.17 1.31 1.50 1.68 1.88 2.10 2.13 2.14 2.16 2.19 2.28 2.34 2.42 2.50 2.54 2.54 2.54 2.56 2.54 2.44
1.04 0.90 1.09 1.34 1.49 1.27 1.07 1.00 1.04 1.13 1.26 1.36 1.47 1.54 1.44 1.33 1.24 1.26 1.26 1.23 1.29 1.28 1.23 1.21 1.21 1.30 1.49 1.60 1.71 1.91 2.05 2.09 2.24 2.22 2.14 2.11 2.14 2.19 2.26 2.33 2.34 2.34 2.30 2.25
1.13 1.14 1.32 1.70 1.92 1.79 1.57 1.35 1.28 1.35 1.61 1.78 1.77 1.69 1.61 1.57 1.51 1.56 1.53 1.41 1.33 1.30 1.31 1.31 1.34 1.39 1.44 1.48 1.53 1.63 1.77 1.92 2.13 2.22 2.18 2.17 2.17 2.18 2.21 2.27 2.33 2.20 2.13 2.16
1.08 1.37 1.70 2.03 1.98 2.07 1.95 1.59 1.53 1.55 1.71 1.84 1.78 1.79 1.84 1.82 1.73 1.59 1.52 1.46 1.42 1.37 1.37 1.41 1.46 1.49 1.47 1.46 1.55 1.66 1.80 2.01 2.23 2.25 2.15 2.16 2.23 2.28 2.30 2.31 2.34 2.39 2.18 2.13

GEFSCGP_prec_meanprecacc_270.txt.gz
Total_Precipitation_Accumulation
0.00 0.01 0.02 0.02 0.02 0.03 0.05 0.10 0.18 0.28 0.23 0.33 0.43 0.51 0.66 0.82 1.04 1.09 1.16 1.26 1.51 1.81 2.21 2.93 3.57 4.13 4.82 5.59 6.18 6.09 5.48 5.01 4.54 4.14 3.65 3.60 3.43 3.18 2.96 2.71 2.48 2.43 2.31 2.11
0.01 0.03 0.03 0.03 0.03 0.04 0.06 0.10 0.17 0.22 0.19 0.21 0.36 0.61 0.76 0.84 1.02 0.98 0.97 1.03 1.23 1.59 2.21 2.96 3.56 3.78 3.82 4.10 4.35 3.85 3.66 3.69 3.41 3.25 3.25 3.18 3.05 2.75 2.53 2.40 2.49 2.17 2.13 2.07
0.03 0.04 0.03 0.03 0.03 0.05 0.09 0.11 0.13 0.20 0.22 0.28 0.44 0.83 1.02 0.94 0.96 0.82 0.80 1.02 1.49 1.91 2.33 2.83 3.01 3.02 2.93 2.90 2.88 2.65 2.61 2.93 2.98 3.06 3.13 3.14 3.11 2.94 2.69 2.41 2.42 2.08 1.88 1.90
0.02 0.03 0.03 0.05 0.05 0.05 0.08 0.08 0.06 0.09 0.17 0.41 0.58 1.05 1.28 1.18 1.11 0.84 0.88 1.27 1.77 2.08 2.32 2.30 1.88 1.75 1.90 2.00 2.12 2.38 2.48 2.62 2.58 2.75 2.73 2.66 2.44 2.29 2.18 2.11 2.18 2.19 1.97 1.86
0.03 0.03 0.04 0.05 0.05 0.04 0.06 0.05 0.04 0.08 0.18 0.45 0.74 1.19 1.45 1.33 1.11 0.86 0.83 0.89 1.28 1.43 1.38 1.23 1.09 1.13 1.36 1.64 1.92 2.29 2.40 2.44 2.37 2.36 2.49 2.68 2.58 2.55 2.39 2.28 2.48 2.46 2.43 2.17
0.04 0.04 0.04 0.04 0.03 0.04 0.05 0.06 0.13 0.22 0.41 0.88 0.96 1.07 1.37 1.26 1.04 0.91 0.78 0.69 0.89 0.93 0.75 0.79 0.90 1.10 1.34 1.51 1.68 1.94 2.08 2.27 2.30 2.35 2.45 2.49 2.53 2.65 2.57 2.47 2.37 2.25 2.28 2.21
0.09 0.09 0.06 0.04 0.04 0.04 0.04 0.07 0.28 0.63 0.94 1.09 0.83 0.97 1.30 0.98 0.77 0.66 0.54 0.47 0.48 0.57 0.64 0.79 0.90 1.11 1.21 1.30 1.35 1.53 1.59 1.80 1.99 2.11 2.19 2.28 2.42 2.53 2.47 2.49 2.40 2.28 2.10 2.01
0.15 0.14 0.09 0.04 0.05 0.05 0.05 0.05 0.13 0.25 0.38 0.60 0.78 1.19 1.28 0.90 0.60 0.45 0.41 0.41 0.40 0.48 0.55 0.61 0.74 0.86 0.94 1.07 1.25 1.43 1.42 1.45 1.53 1.59 1.77 1.95 2.02 2.15 2.20 2.45 2.35 2.25 2.12 2.04
0.05 0.04 0.05 0.04 0.05 0.04 0.05 0.04 0.05 0.08 0.12 0.37 0.83 1.13 1.08 0.74 0.57 0.51 0.50 0.51 0.52 0.52 0.63 0.60 0.62 0.81 0.88 0.84 0.95 1.14 1.20 1.24 1.29 1.35 1.49 1.56 1.60 1.76 1.99 2.05 1.90 1.76 1.84 1.95
0.03 0.02 0.03 0.03 0.04 0.04 0.05 0.05 0.05 0.07 0.13 0.29 0.67 1.19 1.45 1.14 0.81 0.64 0.68 0.60 0.54 0.48 0.54 0.65 0.67 0.75 0.80 0.78 0.95 1.09 1.18 1.24 1.26 1.27 1.31 1.25 1.40 1.52 1.70 1.78 1.78 1.70 1.64 1.78
0.02 0.02 0.03 0.03 0.05 0.06 0.06 0.06 0.07 0.09 0.10 0.19 0.49 0.81 0.88 0.99 0.82 0.61 0.64 0.60 0.54 0.48 0.50 0.62 0.65 0.72 0.70 0.69 0.80 0.97 1.16 1.21 1.13 1.17 1.21 1.29 1.38 1.55 1.63 1.60 1.66 1.68 1.70 1.81
0.02 0.02 0.02 0.05 0.07 0.07 0.08 0.09 0.10 0.11 0.13 0.14 0.25 0.45 0.50 0.57 0.67 0.87 0.81 0.68 0.66 0.62 0.55 0.59 0.63 0.68 0.63 0.63 0.71 0.83 1.02 1.16 1.19 1.18 1.25 1.35 1.42 1.51 1.58 1.52 1.62 1.80 1.84 1.89
0.03 0.03 0.04 0.12 0.17 0.15 0.12 0.11 0.11 0.11 0.12 0.12 0.24 0.44 0.46 0.47 0.49 0.61 0.73 0.81 0.71 0.59 0.58 0.61 0.71 0.67 0.61 0.62 0.67 0.81 1.08 1.29 1.45 1.50 1.46 1.43 1.39 1.45 1.56 1.63 1.69 1.81 1.94 2.01
0.03 0.04 0.04 0.10 0.18 0.22 0.21 0.17 0.14 0.11 0.10 0.10 0.16 0.35 0.44 0.55 0.60 0.58 0.69 0.84 0.70 0.54 0.55 0.66 0.75 0.81 0.86 0.86 0.87 1.01 1.19 1.25 1.37 1.35 1.33 1.40 1.44 1.56 1.71 1.77 1.84 1.91 1.94 2.00
0.03 0.03 0.03 0.03 0.06 0.14 0.21 0.20 0.14 0.10 0.08 0.10 0.12 0.21 0.38 0.58 0.71 0.77 0.80 0.84 0.72 0.63 0.67 0.73 0.81 0.88 0.95 1.03 1.02 1.01 1.10 1.12 1.25 1.54 1.66 1.78 1.79 1.84 1.96 2.05 2.02 2.06 2.06 2.05
0.06 0.05 0.04 0.04 0.06 0.09 0.13 0.17 0.13 0.10 0.10 0.11 0.14 0.25 0.39 0.62 0.69 0.77 0.74 0.76 0.72 0.75 0.78 0.86 0.91 0.95 0.98 1.05 1.15 1.20 1.21 1.24 1.44 1.85 2.11 2.22 2.26 2.31 2.36 2.42 2.42 2.44 2.39 2.50
0.12 0.11 0.09 0.06 0.08 0.11 0.16 0.15 0.14 0.13 0.13 0.17 0.22 0.32 0.43 0.58 0.75 0.86 0.76 0.64 0.65 0.68 0.73 0.82 0.98 1.09 1.10 1.13 1.22 1.32 1.40 1.45 1.60 1.88 2.08 2.18 2.29 2.40 2.56 2.60 2.63 2.63 2.65 2.66
0.20 0.21 0.18 0.13 0.14 0.21 0.21 0.22 0.24 0.23 0.24 0.27 0.38 0.50 0.55 0.59 0.69 0.73 0.63 0.61 0.65 0.68 0.79 0.91 0.96 1.11 1.22 1.31 1.43 1.66 1.85 1.98 2.01 2.12 2.30 2.40 2.38 2.40 2.48 2.50 2.45 2.48 2.61 2.63
0.25 0.29 0.27 0.25 0.24 0.24 0.27 0.33 0.34 0.35 0.46 0.52 0.64 0.76 0.83 0.80 0.78 0.87 0.80 0.74 0.74 0.84 0.94 1.12 1.27 1.31 1.42 1.52 1.64 1.80 2.08 2.23 2.27 2.25 2.41 2.54 2.63 2.69 2.60 2.49 2.52 2.56 2.61 2.49
0.30 0.35 0.41 0.36 0.41 0.44 0.41 0.45 0.43 0.49 0.86 0.80 0.85 0.96 1.03 1.09 1.33 1.33 1.04 1.02 0.94 0.90 1.02 1.12 1.32 1.47 1.54 1.70 1.78 1.85 1.98 2.11 2.22 2.23 2.31 2.47 2.56 2.72 2.83 2.76 2.77 2.73 2.65 2.55
0.46 0.49 0.46 0.47 0.53 0.54 0.49 0.48 0.53 0.97 1.36 1.15 1.08 1.14 1.23 1.34 1.37 1.27 1.12 1.18 1.20 1.04 1.01 1.06 1.14 1.31 1.42 1.52 1.62 1.78 1.89 1.91 2.02 2.07 2.06 2.22 2.44 2.61 2.74 2.86 2.88 2.88 2.80 2.69
0.71 0.74 0.69 0.66 0.85 0.96 0.66 0.59 0.90 1.21 1.20 1.32 1.24 1.24 1.34 1.39 1.41 1.39 1.36 1.33 1.26 1.15 1.06 1.09 1.17 1.26 1.34 1.48 1.72 1.92 1.98 1.96 1.97 2.03 2.14 2.26 2.45 2.55 2.56 2.64 2.72 2.84 2.83 2.76
0.96 1.03 1.02 1.03 1.18 1.08 0.79 0.84 0.94 0.98 1.16 1.26 1.29 1.30 1.34 1.36 1.34 1.28 1.22 1.21 1.26 1.19 1.19 1.16 1.20 1.33 1.52 1.70 1.91 2.13 2.17 2.20 2.21 2.25 2.33 2.40 2.48 2.55 2.59 2.59 2.59 2.61 2.59 2.49
1.05 0.90 1.10 1.35 1.50 1.27 1.07 1.01 1.05 1.14 1.27 1.37 1.48 1.54 1.45 1.34 1.25 1.27 1.27 1.24 1.31 1.31 1.26 1.23 1.22 1.32 1.51 1.63 1.73 1.95 2.09 2.14 2.29 2.30 2.23 2.21 2.22 2.27 2.32 2.38 2.38 2.38 2.34 2.29
1.14 1.15 1.33 1.72 1.93 1.79 1.57 1.35 1.29 1.35 1.61 1.79 1.77 1.70 1.62 1.58 1.52 1.57 1.55 1.42 1.34 1.31 1.33 1.33 1.36 1.41 1.46 1.50 1.56 1.67 1.81 1.95 2.15 2.26 2.25 2.26 2.27 2.28 2.31 2.37 2.42 2.28 2.20 2.23
1.10 1.39 1.72 2.05 2.00 2.09 1.97 1.60 1.54 1.56 1.72 1.85 1.79 1.80 1.85 1.83 1.74 1.60 1.53 1.47 1.43 1.40 1.41 1.45 1.50 1.53 1.50 1.48 1.58 1.70 1.83 2.04 2.28 2.29 2.19 2.20 2.27 2.34 2.38 2.42 2.49 2.52 2.29 2.24

GEFSCGP_prec_meanprecacc_276.txt.gz
Total_Precipitation_Accumulation
0.00 0.01 0.02 0.02 0.02 0.04 0.07 0.12 0.20 0.28 0.24 0.34 0.44 0.53 0.67 0.83 1.06 1.10 1.17 1.27 1.52 1.82 2.23 2.95 3.59 4.15 4.84 5.61 6.19 6.09 5.49 5.03 4.56 4.14 3.67 3.64 3.50 3.26 3.05 2.82 2.60 2.54 2.41 2.22
0.01 0.03 0.03 0.03 0.03 0.04 0.07 0.11 0.18 0.23 0.20 0.21 0.37 0.65 0.79 0.85 1.03 0.99 0.99 1.04 1.24 1.61 2.22 2.98 3.57 3.79 3.84 4.12 4.36 3.86 3.67 3.70 3.42 3.26 3.26 3.20 3.08 2.80 2.61 2.53 2.65 2.33 2.27 2.19
0.03 0.04 0.03 0.03 0.04 0.05 0.09 0.12 0.14 0.22 0.22 0.28 0.44 0.85 1.05 0.95 0.97 0.83 0.81 1.03 1.49 1.92 2.34 2.85 3.02 3.03 2.94 2.91 2.90 2.67 2.63 2.96 3.00 3.08 3.14 3.15 3.13 2.97 2.75 2.51 2.55 2.23 2.02 2.01
0.02 0.03 0.03 0.05 0.05 0.05 0.08 0.08 0.06 0.09 0.18 0.42 0.59 1.06 1.30 1.19 1.13 0.86 0.89 1.28 1.78 2.09 2.34 2.31 1.90 1.76 1.91 2.01 2.14 2.40 2.50 2.65 2.61 2.78 2.75 2.67 2.45 2.32 2.22 2.17 2.28 2.33 2.11 1.97
0.03 0.03 0.04 0.05 0.05 0.04 0.06 0.05 0.04 0.08 0.18 0.46 0.75 1.21 1.47 1.35 1.13 0.88 0.85 0.91 1.29 1.44 1.39 1.25 1.11 1.15 1.39 1.66 1.94 2.30 2.42 2.46 2.39 2.38 2.52 2.71 2.61 2.60 2.46 2.34 2.55 2.55 2.53 2.27
0.04 0.04 0.04 0.04 0.03 0.04 0.05 0.07 0.13 0.22 0.41 0.89 0.98 1.10 1.41 1.28 1.06 0.92 0.79 0.70 0.90 0.94 0.77 0.81 0.93 1.14 1.39 1.54 1.70 1.96 2.10 2.29 2.32 2.37 2.50 2.54 2.59 2.74 2.67 2.57 2.44 2.32 2.34 2.29
0.10 0.09 0.07 0.04 0.04 0.04 0.04 0.07 0.28 0.64 0.95 1.11 0.84 0.98 1.33 0.99 0.79 0.67 0.55 0.48 0.50 0.58 0.66 0.82 0.93 1.15 1.28 1.36 1.40 1.58 1.63 1.82 2.01 2.12 2.21 2.30 2.44 2.56 2.51 2.57 2.48 2.34 2.14 2.05
0.15 0.14 0.09 0.04 0.05 0.05 0.05 0.05 0.13 0.26 0.39 0.61 0.79 1.20 1.31 0.91 0.61 0.47 0.43 0.42 0.42 0.50 0.60 0.66 0.78 0.89 0.99 1.18 1.39 1.51 1.47 1.50 1.56 1.61 1.78 1.96 2.04 2.16 2.21 2.49 2.39 2.30 2.19 2.10
0.05 0.05 0.05 0.04 0.05 0.04 0.05 0.04 0.05 0.08 0.12 0.38 0.84 1.14 1.10 0.76 0.59 0.53 0.52 0.53 0.53 0.55 0.66 0.66 0.68 0.84 0.91 0.89 1.01 1.21 1.29 1.32 1.35 1.39 1.51 1.59 1.62 1.77 2.00 2.06 1.93 1.80 1.91 2.03
0.03 0.02 0.03 0.03 0.04 0.04 0.05 0.05 0.05 0.07 0.13 0.29 0.67 1.19 1.46 1.16 0.83 0.65 0.69 0.62 0.57 0.53 0.58 0.70 0.75 0.79 0.81 0.80 0.97 1.13 1.25 1.33 1.34 1.32 1.35 1.28 1.42 1.54 1.72 1.80 1.80 1.71 1.68 1.86
0.02 0.02 0.03 0.03 0.05 0.06 0.06 0.06 0.07 0.09 0.10 0.19 0.50 0.82 0.89 1.00 0.85 0.63 0.66 0.62 0.56 0.51 0.52 0.64 0.68 0.74 0.72 0.70 0.82 1.00 1.20 1.28 1.19 1.22 1.25 1.33 1.40 1.57 1.64 1.62 1.68 1.70 1.72 1.87
0.02 0.02 0.02 0.05 0.07 0.07 0.08 0.09 0.10 0.11 0.13 0.14 0.26 0.45 0.51 0.58 0.69 0.89 0.85 0.70 0.67 0.64 0.56 0.61 0.65 0.69 0.65 0.65 0.73 0.84 1.03 1.18 1.22 1.21 1.28 1.37 1.45 1.53 1.60 1.54 1.64 1.82 1.87 1.92
0.03 0.03 0.04 0.12 0.17 0.15 0.12 0.11 0.11 0.11 0.12 0.12 0.24 0.45 0.47 0.47 0.51 0.64 0.77 0.83 0.72 0.59 0.59 0.62 0.72 0.68 0.62 0.64 0.70 0.84 1.10 1.30 1.47 1.51 1.47 1.45 1.41 1.47 1.59 1.66 1.72 1.84 1.96 2.05
0.03 0.04 0.04 0.10 0.18 0.22 0.21 0.17 0.14 0.11 0.10 0.10 0.16 0.35 0.45 0.56 0.62 0.59 0.71 0.85 0.71 0.55 0.56 0.67 0.77 0.82 0.87 0.87 0.89 1.03 1.21 1.27 1.38 1.38 1.36 1.43 1.47 1.59 1.75 1.83 1.90 1.96 1.99 2.05
0.03 0.03 0.03 0.03 0.06 0.14 0.21 0.20 0.14 0.10 0.08 0.10 0.12 0.22 0.38 0.59 0.72 0.78 0.81 0.85 0.74 0.64 0.69 0.74 0.83 0.90 0.98 1.05 1.04 1.04 1.13 1.15 1.27 1.58 1.71 1.85 1.86 1.89 2.00 2.09 2.08 2.14 2.15 2.12
0.06 0.05 0.04 0.04 0.06 0.09 0.13 0.17 0.13 0.10 0.10 0.11 0.14 0.25 0.39 0.63 0.71 0.78 0.76 0.77 0.74 0.76 0.79 0.88 0.92 0.98 1.02 1.09 1.19 1.24 1.24 1.27 1.47 1.90 2.18 2.30 2.33 2.35 2.39 2.44 2.46 2.49 2.47 2.60
0.12 0.11 0.09 0.06 0.08 0.11 0.16 0.15 0.15 0.13 0.13 0.17 0.23 0.33 0.44 0.60 0.78 0.89 0.79 0.66 0.67 0.70 0.75 0.84 1.00 1.12 1.15 1.20 1.28 1.37 1.43 1.49 1.63 1.92 2.13 2.23 2.33 2.43 2.59 2.64 2.66 2.66 2.69 2.72
0.20 0.21 0.18 0.13 0.14 0.21 0.21 0.22 0.24 0.23 0.24 0.27 0.39 0.51 0.56 0.61 0.72 0.77 0.67 0.63 0.67 0.72 0.84 0.95 1.00 1.17 1.29 1.40 1.54 1.75 1.90 2.01 2.05 2.16 2.35 2.45 2.42 2.46 2.53 2.53 2.48 2.51 2.64 2.67
0.26 0.29 0.27 0.25 0.24 0.24 0.28 0.33 0.34 0.35 0.46 0.52 0.65 0.78 0.84 0.82 0.80 0.92 0.82 0.76 0.76 0.89 1.04 1.23 1.38 1.41 1.51 1.63 1.77 1.92 2.16 2.30 2.34 2.31 2.45 2.57 2.66 2.73 2.63 2.52 2.54 2.58 2.64 2.52
0.30 0.35 0.41 0.36 0.41 0.44 0.41 0.45 0.44 0.49 0.87 0.82 0.88 1.00 1.06 1.13 1.37 1.38 1.09 1.06 0.98 0.98 1.10 1.23 1.41 1.54 1.60 1.77 1.87 1.95 2.09 2.19 2.28 2.29 2.35 2.49 2.60 2.77 2.89 2.82 2.81 2.77 2.69 2.59
0.47 0.50 0.46 0.47 0.53 0.54 0.50 0.48 0.53 0.98 1.38 1.16 1.10 1.16 1.26 1.41 1.45 1.32 1.16 1.21 1.22 1.08 1.06 1.11 1.21 1.40 1.50 1.59 1.70 1.86 1.95 1.95 2.05 2.10 2.10 2.27 2.50 2.69 2.82 2.93 2.93 2.94 2.86 2.75
0.72 0.75 0.70 0.67 0.86 0.97 0.67 0.60 0.91 1.24 1.21 1.33 1.26 1.26 1.36 1.41 1.42 1.41 1.39 1.36 1.28 1.18 1.09 1.12 1.21 1.32 1.39 1.54 1.78 1.97 2.01 2.00 2.02 2.09 2.21 2.33 2.53 2.62 2.63 2.72 2.79 2.92 2.90 2.84
0.98 1.04 1.05 1.06 1.20 1.10 0.81 0.86 0.97 1.01 1.19 1.29 1.31 1.32 1.36 1.37 1.35 1.29 1.23 1.22 1.27 1.21 1.21 1.18 1.21 1.35 1.54 1.74 1.97 2.20 2.22 2.26 2.30 2.33 2.40 2.46 2.52 2.61 2.67 2.69 2.69 2.70 2.68 2.58
1.06 0.91 1.11 1.36 1.51 1.29 1.10 1.04 1.09 1.18 1.31 1.41 1.52 1.57 1.47 1.35 1.26 1.28 1.29 1.25 1.31 1.31 1.28 1.25 1.25 1.34 1.54 1.66 1.77 2.00 2.16 2.22 2.38 2.38 2.30 2.28 2.27 2.33 2.39 2.47 2.48 2.46 2.40 2.34
1.16 1.16 1.35 1.74 1.95 1.81 1.59 1.38 1.32 1.40 1.65 1.81 1.79 1.71 1.63 1.59 1.53 1.59 1.56 1.44 1.36 1.33 1.35 1.35 1.41 1.48 1.51 1.54 1.60 1.72 1.88 2.02 2.23 2.33 2.32 2.34 2.33 2.33 2.36 2.44 2.49 2.34 2.25 2.26
1.13 1.42 1.74 2.07 2.02 2.10 1.98 1.61 1.56 1.59 1.75 1.88 1.82 1.81 1.86 1.85 1.75 1.61 1.54 1.49 1.45 1.42 1.45 1.50 1.56 1.58 1.55 1.53 1.62 1.74 1.88 2.09 2.33 2.35 2.25 2.26 2.32 2.38 2.43 2.47 2.53 2.55 2.32 2.26

GEFSCGP_prec_meanprecacc_282.txt.gz
Total_Precipitation_Accumulation
0.00 0.01 0.02 0.02 0.02 0.04 0.07 0.12 0.20 0.29 0.24 0.34 0.44 0.54 0.68 0.84 1.07 1.11 1.19 1.29 1.55 1.87 2.27 3.00 3.64 4.20 4.88 5.63 6.20 6.11 5.50 5.05 4.59 4.17 3.70 3.67 3.53 3.31 3.11 2.87 2.64 2.60 2.48 2.30
0.01 0.03 0.03 0.03 0.03 0.04 0.07 0.11 0.18 0.23 0.20 0.21 0.38 0.66 0.81 0.87 1.04 1.00 1.00 1.06 1.26 1.64 2.26 3.02 3.60 3.82 3.86 4.13 4.38 3.88 3.69 3.72 3.44 3.28 3.28 3.22 3.10 2.82 2.67 2.65 2.77 2.43 2.38 2.29
0.03 0.04 0.03 0.03 0.04 0.05 0.09 0.12 0.15 0.22 0.22 0.28 0.44 0.85 1.06 0.96 0.98 0.84 0.82 1.04 1.51 1.94 2.36 2.87 3.04 3.05 2.96 2.93 2.92 2.70 2.65 2.98 3.01 3.09 3.15 3.16 3.14 2.98 2.78 2.58 2.68 2.35 2.16 2.16
0.02 0.03 0.03 0.05 0.05 0.05 0.08 0.08 0.06 0.09 0.18 0.42 0.59 1.06 1.30 1.20 1.13 0.86 0.90 1.30 1.80 2.11 2.36 2.34 1.92 1.77 1.92 2.03 2.15 2.41 2.50 2.66 2.63 2.79 2.76 2.68 2.46 2.33 2.25 2.23 2.37 2.45 2.22 2.09
0.03 0.03 0.04 0.05 0.05 0.04 0.06 0.05 0.04 0.08 0.19 0.46 0.75 1.21 1.48 1.36 1.14 0.89 0.85 0.92 1.31 1.46 1.42 1.28 1.14 1.16 1.39 1.69 1.96 2.31 2.42 2.47 2.40 2.39 2.53 2.72 2.62 2.62 2.49 2.39 2.63 2.67 2.66 2.36
0.04 0.04 0.05 0.04 0.04 0.04 0.05 0.07 0.14 0.23 0.41 0.89 0.98 1.10 1.41 1.29 1.06 0.93 0.80 0.71 0.91 0.96 0.81 0.85 0.95 1.17 1.41 1.59 1.73 1.98 2.12 2.31 2.33 2.38 2.51 2.55 2.60 2.75 2.70 2.62 2.50 2.41 2.44 2.36
0.10 0.09 0.07 0.04 0.04 0.04 0.05 0.07 0.29 0.64 0.96 1.11 0.84 0.98 1.33 0.99 0.79 0.67 0.56 0.50 0.52 0.62 0.70 0.86 0.98 1.18 1.30 1.39 1.44 1.62 1.68 1.87 2.04 2.15 2.24 2.32 2.46 2.58 2.53 2.60 2.54 2.41 2.19 2.10
0.15 0.14 0.09 0.04 0.05 0.05 0.05 0.05 0.13 0.26 0.39 0.61 0.79 1.20 1.31 0.91 0.61 0.47 0.44 0.44 0.44 0.52 0.63 0.71 0.84 0.93 1.02 1.21 1.46 1.64 1.58 1.56 1.60 1.64 1.81 1.99 2.06 2.19 2.23 2.52 2.42 2.34 2.21 2.13
0.05 0.05 0.05 0.04 0.05 0.04 0.05 0.04 0.05 0.08 0.12 0.38 0.84 1.14 1.10 0.76 0.59 0.54 0.53 0.54 0.54 0.56 0.68 0.68 0.70 0.86 0.93 0.92 1.05 1.27 1.36 1.38 1.37 1.40 1.53 1.61 1.64 1.79 2.02 2.09 1.95 1.82 1.92 2.05
0.03 0.03 0.03 0.03 0.04 0.04 0.05 0.05 0.05 0.07 0.13 0.29 0.67 1.19 1.46 1.16 0.83 0.65 0.70 0.63 0.57 0.53 0.59 0.71 0.76 0.80 0.83 0.82 0.99 1.14 1.26 1.34 1.35 1.33 1.36 1.29 1.44 1.55 1.74 1.83 1.83 1.74 1.70 1.89
0.03 0.02 0.03 0.03 0.05 0.06 0.06 0.06 0.07 0.09 0.10 0.19 0.50 0.82 0.89 1.00 0.85 0.63 0.66 0.62 0.57 0.51 0.52 0.65 0.69 0.75 0.73 0.72 0.84 1.01 1.21 1.29 1.20 1.23 1.26 1.34 1.42 1.59 1.66 1.64 1.69 1.72 1.74 1.89
0.03 0.02 0.02 0.05 0.07 0.07 0.08 0.09 0.10 0.11 0.13 0.14 0.26 0.45 0.51 0.58 0.69 0.89 0.85 0.70 0.68 0.64 0.56 0.62 0.67 0.71 0.67 0.67 0.75 0.86 1.05 1.20 1.23 1.22 1.29 1.39 1.46 1.55 1.62 1.55 1.66 1.84 1.89 1.95
0.03 0.03 0.04 0.12 0.17 0.15 0.12 0.11 0.11 0.11 0.12 0.12 0.24 0.45 0.47 0.47 0.51 0.64 0.77 0.84 0.72 0.60 0.60 0.64 0.75 0.70 0.64 0.66 0.72 0.85 1.12 1.32 1.49 1.54 1.48 1.46 1.42 1.51 1.65 1.72 1.77 1.87 2.00 2.09
0.03 0.04 0.04 0.10 0.18 0.22 0.21 0.17 0.14 0.11 0.10 0.10 0.16 0.35 0.45 0.56 0.62 0.59 0.71 0.86 0.72 0.56 0.57 0.68 0.78 0.84 0.88 0.89 0.91 1.05 1.23 1.29 1.41 1.41 1.37 1.45 1.51 1.64 1.79 1.88 1.94 2.00 2.03 2.08
0.03 0.03 0.03 0.03 0.06 0.14 0.21 0.20 0.14 0.10 0.08 0.10 0.12 0.22 0.39 0.59 0.72 0.78 0.81 0.86 0.75 0.65 0.70 0.75 0.84 0.92 1.00 1.08 1.07 1.06 1.16 1.19 1.32 1.62 1.74 1.88 1.91 1.94 2.05 2.14 2.15 2.19 2.20 2.18
0.06 0.05 0.04 0.04 0.06 0.09 0.13 0.17 0.13 0.10 0.10 0.11 0.14 0.25 0.40 0.64 0.72 0.79 0.77 0.78 0.75 0.78 0.81 0.89 0.94 1.00 1.05 1.13 1.24 1.28 1.29 1.33 1.53 1.96 2.25 2.37 2.41 2.44 2.50 2.57 2.55 2.55 2.51 2.64
0.12 0.11 0.09 0.06 0.08 0.11 0.16 0.15 0.15 0.13 0.13 0.17 0.23 0.33 0.44 0.60 0.79 0.90 0.80 0.68 0.69 0.73 0.76 0.86 1.02 1.14 1.17 1.24 1.32 1.42 1.49 1.55 1.70 1.99 2.20 2.31 2.42 2.52 2.69 2.72 2.73 2.71 2.72 2.74
0.20 0.21 0.18 0.13 0.14 0.21 0.21 0.22 0.24 0.23 0.24 0.27 0.39 0.51 0.56 0.62 0.73 0.79 0.68 0.65 0.69 0.74 0.86 0.97 1.02 1.19 1.32 1.44 1.59 1.82 1.98 2.08 2.11 2.23 2.41 2.51 2.50 2.55 2.62 2.60 2.52 2.55 2.67 2.69
0.26 0.29 0.27 0.25 0.24 0.24 0.28 0.33 0.34 0.35 0.47 0.52 0.65 0.78 0.84 0.83 0.81 0.93 0.84 0.77 0.78 0.91 1.06 1.25 1.39 1.42 1.54 1.67 1.81 1.99 2.25 2.42 2.48 2.44 2.57 2.68 2.76 2.81 2.71 2.59 2.60 2.63 2.67 2.54
0.31 0.35 0.41 0.37 0.41 0.44 0.41 0.45 0.44 0.49 0.87 0.82 0.88 1.00 1.07 1.13 1.38 1.38 1.10 1.08 1.00 1.00 1.12 1.25 1.42 1.55 1.61 1.79 1.89 1.97 2.13 2.27 2.38 2.43 2.53 2.67 2.75 2.90 2.98 2.90 2.90 2.83 2.73 2.63
0.47 0.50 0.47 0.47 0.53 0.54 0.50 0.48 0.53 0.98 1.38 1.16 1.10 1.16 1.27 1.42 1.46 1.34 1.18 1.23 1.24 1.10 1.08 1.13 1.22 1.40 1.50 1.60 1.71 1.88 1.96 1.97 2.07 2.13 2.15 2.35 2.61 2.80 2.93 3.01 2.99 2.98 2.89 2.78
0.72 0.76 0.70 0.67 0.86 0.97 0.68 0.60 0.92 1.24 1.21 1.33 1.26 1.27 1.37 1.42 1.44 1.43 1.41 1.38 1.29 1.19 1.11 1.14 1.23 1.33 1.40 1.54 1.79 1.98 2.02 2.01 2.04 2.12 2.23 2.36 2.58 2.69 2.71 2.79 2.85 2.96 2.94 2.86
0.98 1.05 1.05 1.06 1.21 1.10 0.81 0.87 0.97 1.01 1.20 1.30 1.32 1.33 1.38 1.40 1.38 1.32 1.26 1.24 1.29 1.23 1.23 1.19 1.22 1.36 1.55 1.75 1.98 2.21 2.23 2.28 2.32 2.36 2.45 2.50 2.56 2.66 2.72 2.74 2.74 2.75 2.72 2.61
1.07 0.91 1.11 1.36 1.52 1.30 1.10 1.05 1.10 1.19 1.32 1.42 1.53 1.59 1.49 1.38 1.28 1.30 1.31 1.28 1.34 1.33 1.29 1.26 1.26 1.35 1.55 1.67 1.78 2.01 2.18 2.24 2.40 2.42 2.36 2.33 2.31 2.37 2.44 2.52 2.53 2.50 2.44 2.37
1.17 1.17 1.35 1.74 1.95 1.81 1.60 1.38 1.33 1.41 1.67 1.83 1.80 1.73 1.65 1.61 1.55 1.61 1.58 1.46 1.38 1.36 1.38 1.38 1.42 1.49 1.53 1.56 1.62 1.75 1.91 2.06 2.26 2.37 2.37 2.40 2.40 2.41 2.44 2.50 2.56 2.41 2.31 2.32
1.14 1.44 1.76 2.08 2.02 2.11 1.99 1.62 1.57 1.60 1.77 1.90 1.84 1.84 1.89 1.87 1.77 1.63 1.56 1.51 1.47 1.45 1.47 1.53 1.59 1.61 1.58 1.56 1.66 1.78 1.93 2.13 2.37 2.38 2.29 2.31 2.38 2.46 2.52 2.56 2.61 2.63 2.39 2.34